Wetterdaten: Sonntag, 01.03.2015
Datum Zeit Temp. Aussen +5cm Feuchte Auss Luftdruck Regen Sonnenschein Regendauer Solar Windben
01.03.2015 00:00 5,7 C 4,4 C 70 % 1007,0 hPa 0,0 l/m 0 min 0 min 0 W/m 14,6 km/h (3 Bft)
01.03.2015 00:02 5,7 C 4,4 C 70 % 1007,1 hPa 0,0 l/m 0 min 0 min 0 W/m 12,6 km/h (3 Bft)
01.03.2015 00:06 5,7 C 3,9 C 70 % 1007,0 hPa 0,0 l/m 0 min 0 min 0 W/m 14,6 km/h (3 Bft)
01.03.2015 00:08 5,7 C 4,4 C 71 % 1007,0 hPa 0,0 l/m 0 min 0 min 0 W/m 16,7 km/h (3 Bft)
01.03.2015 00:10 5,7 C 4,4 C 70 % 1007,0 hPa 0,0 l/m 0 min 0 min 0 W/m 16,7 km/h (3 Bft)
01.03.2015 00:12 5,7 C 4,4 C 71 % 1007,0 hPa 0,0 l/m 0 min 0 min 0 W/m 12,6 km/h (3 Bft)
01.03.2015 00:14 5,7 C 4,4 C 71 % 1007,0 hPa 0,0 l/m 0 min 0 min 0 W/m 18,8 km/h (3 Bft)
01.03.2015 00:16 5,7 C 4,4 C 71 % 1007,0 hPa 0,0 l/m 0 min 0 min 0 W/m 12,6 km/h (3 Bft)
01.03.2015 00:18 5,7 C 4,4 C 71 % 1007,1 hPa 0,0 l/m 0 min 0 min 0 W/m 14,6 km/h (3 Bft)
01.03.2015 00:20 5,8 C 4,4 C 71 % 1006,9 hPa 0,0 l/m 0 min 0 min 0 W/m 14,6 km/h (3 Bft)
01.03.2015 00:22 5,8 C 4,4 C 71 % 1006,9 hPa 0,0 l/m 0 min 0 min 0 W/m 12,6 km/h (3 Bft)
01.03.2015 00:24 5,8 C 4,4 C 71 % 1006,9 hPa 0,0 l/m 0 min 0 min 0 W/m 14,6 km/h (3 Bft)
01.03.2015 00:26 5,8 C 4,4 C 71 % 1006,9 hPa 0,0 l/m 0 min 0 min 0 W/m 29,3 km/h (5 Bft)
01.03.2015 00:28 5,8 C 4,4 C 71 % 1006,9 hPa 0,0 l/m 0 min 0 min 0 W/m 20,9 km/h (4 Bft)
01.03.2015 00:30 5,8 C 4,4 C 71 % 1007,0 hPa 0,0 l/m 0 min 0 min 0 W/m 23,0 km/h (4 Bft)
01.03.2015 00:32 5,8 C 4,4 C 70 % 1007,0 hPa 0,0 l/m 0 min 0 min 0 W/m 12,6 km/h (3 Bft)
01.03.2015 00:34 5,9 C 5,0 C 70 % 1006,9 hPa 0,0 l/m 0 min 0 min 0 W/m 14,6 km/h (3 Bft)
01.03.2015 00:36 5,9 C 5,0 C 70 % 1006,9 hPa 0,0 l/m 0 min 0 min 0 W/m 27,2 km/h (4 Bft)
01.03.2015 00:38 6,0 C 5,0 C 69 % 1006,9 hPa 0,0 l/m 0 min 0 min 0 W/m 25,1 km/h (4 Bft)
01.03.2015 00:40 6,1 C 5,0 C 69 % 1006,9 hPa 0,0 l/m 0 min 0 min 0 W/m 25,1 km/h (4 Bft)
01.03.2015 00:42 6,1 C 5,0 C 68 % 1006,8 hPa 0,0 l/m 0 min 0 min 0 W/m 14,6 km/h (3 Bft)
01.03.2015 00:44 6,2 C 5,0 C 68 % 1006,9 hPa 0,0 l/m 0 min 0 min 0 W/m 27,2 km/h (4 Bft)
01.03.2015 00:46 6,2 C 5,0 C 68 % 1006,9 hPa 0,0 l/m 0 min 0 min 0 W/m 18,8 km/h (3 Bft)
01.03.2015 00:48 6,3 C 5,0 C 68 % 1006,9 hPa 0,0 l/m 0 min 0 min 0 W/m 14,6 km/h (3 Bft)
01.03.2015 00:50 6,4 C 5,0 C 68 % 1006,8 hPa 0,0 l/m 0 min 0 min 0 W/m 20,9 km/h (4 Bft)
01.03.2015 00:52 6,4 C 5,0 C 68 % 1006,9 hPa 0,0 l/m 0 min 0 min 0 W/m 35,6 km/h (5 Bft)
01.03.2015 00:54 6,4 C 5,0 C 68 % 1006,7 hPa 0,0 l/m 0 min 0 min 0 W/m 27,2 km/h (4 Bft)
01.03.2015 00:56 6,5 C 5,0 C 68 % 1006,8 hPa 0,0 l/m 0 min 0 min 0 W/m 18,8 km/h (3 Bft)
01.03.2015 00:58 6,6 C 5,0 C 68 % 1006,7 hPa 0,0 l/m 0 min 2 min 0 W/m 20,9 km/h (4 Bft)
01.03.2015 01:00 6,6 C 5,0 C 68 % 1006,6 hPa 0,0 l/m 0 min 2 min 0 W/m 23,0 km/h (4 Bft)
01.03.2015 01:02 6,6 C 5,0 C 68 % 1006,6 hPa 0,0 l/m 0 min 2 min 0 W/m 33,5 km/h (5 Bft)
01.03.2015 01:04 6,7 C 5,0 C 68 % 1006,5 hPa 0,0 l/m 0 min 0 min 0 W/m 25,1 km/h (4 Bft)
01.03.2015 01:06 6,7 C 5,0 C 68 % 1006,5 hPa 0,0 l/m 0 min 2 min 0 W/m 23,0 km/h (4 Bft)
01.03.2015 01:08 6,7 C 4,4 C 69 % 1006,2 hPa 0,0 l/m 0 min 2 min 0 W/m 27,2 km/h (4 Bft)
01.03.2015 01:10 6,7 C 4,4 C 69 % 1006,1 hPa 0,0 l/m 0 min 2 min 0 W/m 27,2 km/h (4 Bft)
01.03.2015 01:12 6,7 C 4,4 C 69 % 1006,0 hPa 0,0 l/m 0 min 0 min 0 W/m 31,4 km/h (5 Bft)
01.03.2015 01:14 6,7 C 5,0 C 69 % 1005,7 hPa 0,0 l/m 0 min 0 min 0 W/m 37,7 km/h (5 Bft)
01.03.2015 01:16 6,7 C 5,0 C 69 % 1005,7 hPa 0,0 l/m 0 min 0 min 0 W/m 25,1 km/h (4 Bft)
01.03.2015 01:18 6,7 C 5,0 C 69 % 1005,7 hPa 0,0 l/m 0 min 0 min 0 W/m 33,5 km/h (5 Bft)
01.03.2015 01:20 6,7 C 5,0 C 69 % 1005,6 hPa 0,0 l/m 0 min 0 min 0 W/m 35,6 km/h (5 Bft)
01.03.2015 01:22 6,7 C 5,0 C 69 % 1005,5 hPa 0,0 l/m 0 min 0 min 0 W/m 33,5 km/h (5 Bft)
01.03.2015 01:24 6,7 C 5,0 C 69 % 1005,5 hPa 0,0 l/m 0 min 2 min 0 W/m 23,0 km/h (4 Bft)
01.03.2015 01:26 6,7 C 5,0 C 70 % 1005,3 hPa 0,0 l/m 0 min 2 min 0 W/m 20,9 km/h (4 Bft)
01.03.2015 01:28 6,7 C 4,4 C 70 % 1005,3 hPa 0,0 l/m 0 min 2 min 0 W/m 20,9 km/h (4 Bft)
01.03.2015 01:30 6,7 C 4,4 C 71 % 1005,2 hPa 0,0 l/m 0 min 0 min 0 W/m 31,4 km/h (5 Bft)
01.03.2015 01:32 6,7 C 4,4 C 71 % 1005,1 hPa 0,0 l/m 0 min 0 min 0 W/m 27,2 km/h (4 Bft)
01.03.2015 01:34 6,7 C 4,4 C 71 % 1005,1 hPa 0,0 l/m 0 min 0 min 0 W/m 25,1 km/h (4 Bft)
01.03.2015 01:36 6,7 C 4,4 C 71 % 1005,0 hPa 0,0 l/m 0 min 0 min 0 W/m 20,9 km/h (4 Bft)
01.03.2015 01:38 6,7 C 4,4 C 70 % 1005,0 hPa 0,0 l/m 0 min 0 min 0 W/m 27,2 km/h (4 Bft)
01.03.2015 01:40 6,7 C 4,4 C 70 % 1004,9 hPa 0,0 l/m 0 min 0 min 0 W/m 23,0 km/h (4 Bft)
01.03.2015 01:42 6,7 C 5,0 C 71 % 1004,9 hPa 0,0 l/m 0 min 0 min 0 W/m 16,7 km/h (3 Bft)
01.03.2015 01:44 6,7 C 5,0 C 71 % 1004,8 hPa 0,0 l/m 0 min 0 min 0 W/m 25,1 km/h (4 Bft)
01.03.2015 01:46 6,7 C 5,0 C 71 % 1004,7 hPa 0,0 l/m 0 min 0 min 0 W/m 20,9 km/h (4 Bft)
01.03.2015 01:48 6,7 C 5,0 C 71 % 1004,6 hPa 0,0 l/m 0 min 0 min 0 W/m 23,0 km/h (4 Bft)
01.03.2015 01:50 6,7 C 5,0 C 71 % 1004,5 hPa 0,0 l/m 0 min 0 min 0 W/m 33,5 km/h (5 Bft)
01.03.2015 01:52 6,7 C 5,0 C 71 % 1004,5 hPa 0,0 l/m 0 min 0 min 0 W/m 31,4 km/h (5 Bft)
01.03.2015 01:54 6,7 C 5,0 C 71 % 1004,3 hPa 0,0 l/m 0 min 0 min 0 W/m 20,9 km/h (4 Bft)
01.03.2015 01:56 6,7 C 5,0 C 71 % 1004,4 hPa 0,0 l/m 0 min 0 min 0 W/m 20,9 km/h (4 Bft)
01.03.2015 01:58 6,7 C 5,0 C 71 % 1004,6 hPa 0,0 l/m 0 min 0 min 0 W/m 23,0 km/h (4 Bft)
01.03.2015 02:00 6,6 C 5,0 C 71 % 1004,5 hPa 0,0 l/m 0 min 0 min 0 W/m 35,6 km/h (5 Bft)
01.03.2015 02:02 6,7 C 5,0 C 71 % 1004,3 hPa 0,0 l/m 0 min 0 min 0 W/m 35,6 km/h (5 Bft)
01.03.2015 02:04 6,7 C 5,0 C 71 % 1004,4 hPa 0,0 l/m 0 min 0 min 0 W/m 37,7 km/h (5 Bft)
01.03.2015 02:06 6,7 C 5,0 C 71 % 1004,3 hPa 0,0 l/m 0 min 0 min 0 W/m 23,0 km/h (4 Bft)
01.03.2015 02:08 6,7 C 5,0 C 71 % 1004,2 hPa 0,0 l/m 0 min 0 min 0 W/m 23,0 km/h (4 Bft)
01.03.2015 02:10 6,7 C 5,0 C 71 % 1004,3 hPa 0,0 l/m 0 min 0 min 0 W/m 35,6 km/h (5 Bft)
01.03.2015 02:12 6,7 C 5,0 C 71 % 1004,2 hPa 0,0 l/m 0 min 0 min 0 W/m 25,1 km/h (4 Bft)
01.03.2015 02:14 6,7 C 5,0 C 71 % 1004,2 hPa 0,0 l/m 0 min 0 min 0 W/m 29,3 km/h (5 Bft)
01.03.2015 02:16 6,7 C 5,0 C 71 % 1004,3 hPa 0,0 l/m 0 min 0 min 0 W/m 25,1 km/h (4 Bft)
01.03.2015 02:18 6,7 C 5,0 C 71 % 1004,2 hPa 0,0 l/m 0 min 0 min 0 W/m 29,3 km/h (5 Bft)
01.03.2015 02:20 6,7 C 5,0 C 71 % 1004,3 hPa 0,0 l/m 0 min 0 min 0 W/m 20,9 km/h (4 Bft)
01.03.2015 02:22 6,7 C 5,0 C 72 % 1004,2 hPa 0,0 l/m 0 min 0 min 0 W/m 29,3 km/h (5 Bft)
01.03.2015 02:24 6,7 C 5,0 C 72 % 1004,2 hPa 0,0 l/m 0 min 0 min 0 W/m 29,3 km/h (5 Bft)
01.03.2015 02:26 6,7 C 5,0 C 72 % 1004,1 hPa 0,0 l/m 0 min 0 min 0 W/m 25,1 km/h (4 Bft)
01.03.2015 02:28 6,8 C 5,0 C 72 % 1004,2 hPa 0,0 l/m 0 min 0 min 0 W/m 27,2 km/h (4 Bft)
01.03.2015 02:30 6,8 C 5,0 C 72 % 1004,1 hPa 0,0 l/m 0 min 0 min 0 W/m 20,9 km/h (4 Bft)
01.03.2015 02:32 6,8 C 5,0 C 72 % 1004,2 hPa 0,0 l/m 0 min 0 min 0 W/m 23,0 km/h (4 Bft)
01.03.2015 02:34 6,8 C 5,0 C 72 % 1004,2 hPa 0,0 l/m 0 min 0 min 0 W/m 16,7 km/h (3 Bft)
01.03.2015 02:36 6,8 C 5,0 C 72 % 1004,0 hPa 0,0 l/m 0 min 2 min 0 W/m 29,3 km/h (5 Bft)
01.03.2015 02:38 6,8 C 5,0 C 72 % 1004,1 hPa 0,0 l/m 0 min 2 min 0 W/m 25,1 km/h (4 Bft)
01.03.2015 02:40 6,8 C 4,4 C 73 % 1004,1 hPa 0,0 l/m 0 min 2 min 0 W/m 27,2 km/h (4 Bft)
01.03.2015 02:42 6,8 C 4,4 C 74 % 1004,1 hPa 0,0 l/m 0 min 2 min 0 W/m 16,7 km/h (3 Bft)
01.03.2015 02:44 6,8 C 3,9 C 74 % 1003,9 hPa 0,0 l/m 0 min 2 min 0 W/m 16,7 km/h (3 Bft)
01.03.2015 02:46 6,8 C 3,9 C 75 % 1003,9 hPa 0,0 l/m 0 min 2 min 0 W/m 18,8 km/h (3 Bft)
01.03.2015 02:48 6,8 C 3,9 C 76 % 1003,8 hPa 0,2 l/m 0 min 2 min 0 W/m 16,7 km/h (3 Bft)
01.03.2015 02:50 6,7 C 3,9 C 76 % 1003,8 hPa 0,0 l/m 0 min 2 min 0 W/m 16,7 km/h (3 Bft)
01.03.2015 02:52 6,7 C 3,3 C 77 % 1003,8 hPa 0,0 l/m 0 min 2 min 0 W/m 23,0 km/h (4 Bft)
01.03.2015 02:54 6,7 C 3,3 C 78 % 1003,8 hPa 0,0 l/m 0 min 2 min 0 W/m 25,1 km/h (4 Bft)
01.03.2015 02:56 6,6 C 3,3 C 78 % 1003,8 hPa 0,0 l/m 0 min 2 min 0 W/m 23,0 km/h (4 Bft)
01.03.2015 02:58 6,6 C 3,3 C 79 % 1003,8 hPa 0,0 l/m 0 min 2 min 0 W/m 16,7 km/h (3 Bft)
01.03.2015 03:00 6,6 C 3,3 C 79 % 1003,7 hPa 0,0 l/m 0 min 2 min 0 W/m 16,7 km/h (3 Bft)
01.03.2015 03:02 6,5 C 3,3 C 79 % 1003,5 hPa 0,0 l/m 0 min 2 min 0 W/m 16,7 km/h (3 Bft)
01.03.2015 03:04 6,5 C 3,3 C 80 % 1003,5 hPa 0,0 l/m 0 min 2 min 0 W/m 12,6 km/h (3 Bft)
01.03.2015 03:06 6,4 C 3,3 C 80 % 1003,4 hPa 0,0 l/m 0 min 2 min 0 W/m 20,9 km/h (4 Bft)
01.03.2015 03:08 6,4 C 3,3 C 80 % 1003,4 hPa 0,0 l/m 0 min 2 min 0 W/m 14,6 km/h (3 Bft)
01.03.2015 03:10 6,4 C 3,3 C 81 % 1003,3 hPa 0,2 l/m 0 min 2 min 0 W/m 18,8 km/h (3 Bft)
01.03.2015 03:12 6,3 C 3,3 C 82 % 1003,3 hPa 0,0 l/m 0 min 2 min 0 W/m 18,8 km/h (3 Bft)
01.03.2015 03:14 6,3 C 3,3 C 82 % 1003,1 hPa 0,0 l/m 0 min 2 min 0 W/m 16,7 km/h (3 Bft)
01.03.2015 03:16 6,2 C 3,3 C 82 % 1003,0 hPa 0,0 l/m 0 min 2 min 0 W/m 16,7 km/h (3 Bft)
01.03.2015 03:18 6,2 C 3,3 C 83 % 1003,0 hPa 0,0 l/m 0 min 2 min 0 W/m 18,8 km/h (3 Bft)
01.03.2015 03:20 6,1 C 3,3 C 83 % 1002,9 hPa 0,0 l/m 0 min 2 min 0 W/m 18,8 km/h (3 Bft)
01.03.2015 03:22 6,1 C 3,3 C 83 % 1002,9 hPa 0,0 l/m 0 min 2 min 0 W/m 18,8 km/h (3 Bft)
01.03.2015 03:24 6,0 C 3,3 C 84 % 1002,8 hPa 0,0 l/m 0 min 2 min 0 W/m 14,6 km/h (3 Bft)
01.03.2015 03:26 5,9 C 3,3 C 84 % 1002,8 hPa 0,0 l/m 0 min 2 min 0 W/m 16,7 km/h (3 Bft)
01.03.2015 03:28 5,9 C 3,3 C 84 % 1002,7 hPa 0,0 l/m 0 min 2 min 0 W/m 14,6 km/h (3 Bft)
01.03.2015 03:30 5,8 C 3,3 C 85 % 1002,6 hPa 0,0 l/m 0 min 2 min 0 W/m 14,6 km/h (3 Bft)
01.03.2015 03:32 5,8 C 3,3 C 85 % 1002,6 hPa 0,0 l/m 0 min 2 min 0 W/m 16,7 km/h (3 Bft)
01.03.2015 03:34 5,8 C 3,3 C 85 % 1002,5 hPa 0,0 l/m 0 min 2 min 0 W/m 16,7 km/h (3 Bft)
01.03.2015 03:36 5,7 C 3,3 C 86 % 1002,4 hPa 0,0 l/m 0 min 2 min 0 W/m 16,7 km/h (3 Bft)
01.03.2015 03:38 5,7 C 3,3 C 86 % 1002,3 hPa 0,0 l/m 0 min 2 min 0 W/m 16,7 km/h (3 Bft)
01.03.2015 03:40 5,6 C 3,3 C 86 % 1002,3 hPa 0,0 l/m 0 min 2 min 0 W/m 23,0 km/h (4 Bft)
01.03.2015 03:42 5,6 C 3,3 C 86 % 1002,3 hPa 0,2 l/m 0 min 2 min 0 W/m 23,0 km/h (4 Bft)
01.03.2015 03:44 5,6 C 3,3 C 87 % 1002,2 hPa 0,0 l/m 0 min 2 min 0 W/m 35,6 km/h (5 Bft)
01.03.2015 03:46 5,6 C 3,3 C 87 % 1002,2 hPa 0,0 l/m 0 min 2 min 0 W/m 23,0 km/h (4 Bft)
01.03.2015 03:48 5,6 C 3,3 C 87 % 1002,1 hPa 0,0 l/m 0 min 2 min 0 W/m 31,4 km/h (5 Bft)
01.03.2015 03:50 5,5 C 3,3 C 87 % 1002,0 hPa 0,0 l/m 0 min 2 min 0 W/m 27,2 km/h (4 Bft)
01.03.2015 03:52 5,5 C 3,3 C 88 % 1002,0 hPa 0,0 l/m 0 min 2 min 0 W/m 35,6 km/h (5 Bft)
01.03.2015 03:54 5,5 C 3,3 C 88 % 1001,9 hPa 0,0 l/m 0 min 2 min 0 W/m 27,2 km/h (4 Bft)
01.03.2015 03:56 5,5 C 3,3 C 88 % 1001,9 hPa 0,0 l/m 0 min 2 min 0 W/m 29,3 km/h (5 Bft)
01.03.2015 03:58 5,5 C 3,3 C 88 % 1001,7 hPa 0,0 l/m 0 min 2 min 0 W/m 29,3 km/h (5 Bft)
01.03.2015 04:00 5,5 C 3,3 C 88 % 1001,7 hPa 0,0 l/m 0 min 2 min 0 W/m 39,7 km/h (6 Bft)
01.03.2015 04:02 5,5 C 3,3 C 88 % 1001,7 hPa 0,0 l/m 0 min 2 min 0 W/m 33,5 km/h (5 Bft)
01.03.2015 04:04 5,4 C 3,3 C 89 % 1001,7 hPa 0,0 l/m 0 min 2 min 0 W/m 23,0 km/h (4 Bft)
01.03.2015 04:06 5,4 C 3,3 C 89 % 1001,7 hPa 0,0 l/m 0 min 2 min 0 W/m 33,5 km/h (5 Bft)
01.03.2015 04:08 5,4 C 3,3 C 89 % 1001,6 hPa 0,0 l/m 0 min 2 min 0 W/m 20,9 km/h (4 Bft)
01.03.2015 04:10 5,4 C 3,3 C 89 % 1001,7 hPa 0,0 l/m 0 min 2 min 0 W/m 27,2 km/h (4 Bft)
01.03.2015 04:12 5,4 C 3,3 C 89 % 1001,7 hPa 0,0 l/m 0 min 0 min 0 W/m 37,7 km/h (5 Bft)
01.03.2015 04:14 5,4 C 3,3 C 89 % 1001,7 hPa 0,0 l/m 0 min 2 min 0 W/m 25,1 km/h (4 Bft)
01.03.2015 04:16 5,4 C 3,3 C 89 % 1001,6 hPa 0,0 l/m 0 min 2 min 0 W/m 20,9 km/h (4 Bft)
01.03.2015 04:18 5,4 C 3,3 C 89 % 1001,6 hPa 0,0 l/m 0 min 2 min 0 W/m 27,2 km/h (4 Bft)
01.03.2015 04:20 5,4 C 3,3 C 89 % 1001,6 hPa 0,0 l/m 0 min 2 min 0 W/m 33,5 km/h (5 Bft)
01.03.2015 04:22 5,4 C 3,3 C 89 % 1001,5 hPa 0,0 l/m 0 min 0 min 0 W/m 27,2 km/h (4 Bft)
01.03.2015 04:24 5,4 C 3,3 C 89 % 1001,4 hPa 0,0 l/m 0 min 0 min 0 W/m 31,4 km/h (5 Bft)
01.03.2015 04:26 5,4 C 3,3 C 89 % 1001,4 hPa 0,0 l/m 0 min 0 min 0 W/m 27,2 km/h (4 Bft)
01.03.2015 04:28 5,4 C 3,3 C 90 % 1001,4 hPa 0,0 l/m 0 min 2 min 0 W/m 25,1 km/h (4 Bft)
01.03.2015 04:30 5,4 C 3,3 C 90 % 1001,5 hPa 0,2 l/m 0 min 2 min 0 W/m 33,5 km/h (5 Bft)
01.03.2015 04:32 5,4 C 3,3 C 90 % 1001,4 hPa 0,0 l/m 0 min 2 min 0 W/m 29,3 km/h (5 Bft)
01.03.2015 04:34 5,4 C 3,3 C 90 % 1001,4 hPa 0,0 l/m 0 min 2 min 0 W/m 29,3 km/h (5 Bft)
01.03.2015 04:36 5,4 C 3,3 C 90 % 1001,4 hPa 0,0 l/m 0 min 2 min 0 W/m 18,8 km/h (3 Bft)
01.03.2015 04:38 5,5 C 3,3 C 90 % 1001,4 hPa 0,0 l/m 0 min 2 min 0 W/m 37,7 km/h (5 Bft)
01.03.2015 04:40 5,5 C 3,3 C 90 % 1001,4 hPa 0,0 l/m 0 min 2 min 0 W/m 20,9 km/h (4 Bft)
01.03.2015 04:42 5,5 C 3,3 C 90 % 1001,4 hPa 0,0 l/m 0 min 2 min 0 W/m 27,2 km/h (4 Bft)
01.03.2015 04:44 5,5 C 3,3 C 90 % 1001,4 hPa 0,0 l/m 0 min 2 min 0 W/m 20,9 km/h (4 Bft)
01.03.2015 04:46 5,5 C 3,3 C 90 % 1001,4 hPa 0,0 l/m 0 min 2 min 0 W/m 18,8 km/h (3 Bft)
01.03.2015 04:48 5,5 C 3,3 C 90 % 1001,3 hPa 0,0 l/m 0 min 2 min 0 W/m 20,9 km/h (4 Bft)
01.03.2015 04:50 5,5 C 3,3 C 90 % 1001,3 hPa 0,0 l/m 0 min 2 min 0 W/m 31,4 km/h (5 Bft)
01.03.2015 04:52 5,5 C 3,3 C 91 % 1001,2 hPa 0,0 l/m 0 min 2 min 0 W/m 23,0 km/h (4 Bft)
01.03.2015 04:54 5,5 C 3,3 C 91 % 1001,2 hPa 0,0 l/m 0 min 2 min 0 W/m 23,0 km/h (4 Bft)
01.03.2015 04:56 5,5 C 3,3 C 91 % 1001,2 hPa 0,0 l/m 0 min 2 min 0 W/m 33,5 km/h (5 Bft)
01.03.2015 04:58 5,5 C 3,3 C 91 % 1001,1 hPa 0,0 l/m 0 min 2 min 0 W/m 16,7 km/h (3 Bft)
01.03.2015 05:00 5,5 C 3,3 C 91 % 1001,2 hPa 0,0 l/m 0 min 0 min 0 W/m 20,9 km/h (4 Bft)
01.03.2015 05:02 5,5 C 3,3 C 91 % 1001,2 hPa 0,0 l/m 0 min 2 min 0 W/m 25,1 km/h (4 Bft)
01.03.2015 05:04 5,5 C 3,3 C 91 % 1001,2 hPa 0,0 l/m 0 min 2 min 0 W/m 18,8 km/h (3 Bft)
01.03.2015 05:06 5,5 C 3,3 C 91 % 1001,2 hPa 0,0 l/m 0 min 2 min 0 W/m 18,8 km/h (3 Bft)
01.03.2015 05:08 5,4 C 3,3 C 91 % 1001,2 hPa 0,0 l/m 0 min 2 min 0 W/m 12,6 km/h (3 Bft)
01.03.2015 05:10 5,4 C 3,3 C 91 % 1001,0 hPa 0,0 l/m 0 min 2 min 0 W/m 14,6 km/h (3 Bft)
01.03.2015 05:12 5,4 C 3,3 C 92 % 1001,2 hPa 0,0 l/m 0 min 0 min 0 W/m 16,7 km/h (3 Bft)
01.03.2015 05:14 5,4 C 3,3 C 92 % 1001,3 hPa 0,0 l/m 0 min 2 min 0 W/m 12,6 km/h (3 Bft)
01.03.2015 05:16 5,4 C 3,3 C 92 % 1001,1 hPa 0,0 l/m 0 min 2 min 0 W/m 14,6 km/h (3 Bft)
01.03.2015 05:18 5,4 C 3,3 C 92 % 1001,2 hPa 0,0 l/m 0 min 2 min 0 W/m 18,8 km/h (3 Bft)
01.03.2015 05:20 5,4 C 3,3 C 92 % 1001,3 hPa 0,0 l/m 0 min 2 min 0 W/m 10,5 km/h (2 Bft)
01.03.2015 05:22 5,4 C 3,3 C 92 % 1001,4 hPa 0,0 l/m 0 min 2 min 0 W/m 14,6 km/h (3 Bft)
01.03.2015 05:24 5,3 C 3,9 C 92 % 1001,4 hPa 0,2 l/m 0 min 2 min 0 W/m 14,6 km/h (3 Bft)
01.03.2015 05:26 5,3 C 3,9 C 92 % 1001,4 hPa 0,0 l/m 0 min 2 min 0 W/m 18,8 km/h (3 Bft)
01.03.2015 05:28 5,3 C 3,9 C 92 % 1001,4 hPa 0,0 l/m 0 min 2 min 0 W/m 10,5 km/h (2 Bft)
01.03.2015 05:30 5,3 C 3,9 C 92 % 1001,5 hPa 0,0 l/m 0 min 2 min 0 W/m 14,6 km/h (3 Bft)
01.03.2015 05:32 5,3 C 3,9 C 93 % 1001,4 hPa 0,0 l/m 0 min 2 min 0 W/m 10,5 km/h (2 Bft)
01.03.2015 05:34 5,3 C 3,9 C 93 % 1001,4 hPa 0,0 l/m 0 min 2 min 0 W/m 14,6 km/h (3 Bft)
01.03.2015 05:36 5,3 C 3,9 C 93 % 1001,3 hPa 0,0 l/m 0 min 2 min 0 W/m 18,8 km/h (3 Bft)
01.03.2015 05:38 5,4 C 3,9 C 93 % 1001,2 hPa 0,0 l/m 0 min 2 min 0 W/m 25,1 km/h (4 Bft)
01.03.2015 05:40 5,4 C 3,9 C 93 % 1001,2 hPa 0,0 l/m 0 min 2 min 0 W/m 18,8 km/h (3 Bft)
01.03.2015 05:42 5,4 C 3,9 C 93 % 1001,3 hPa 0,0 l/m 0 min 2 min 0 W/m 29,3 km/h (5 Bft)
01.03.2015 05:44 5,5 C 3,9 C 93 % 1001,2 hPa 0,0 l/m 0 min 2 min 0 W/m 31,4 km/h (5 Bft)
01.03.2015 05:46 5,6 C 3,9 C 93 % 1001,2 hPa 0,0 l/m 0 min 2 min 0 W/m 25,1 km/h (4 Bft)
01.03.2015 05:48 5,6 C 3,9 C 94 % 1001,1 hPa 0,0 l/m 0 min 2 min 0 W/m 14,6 km/h (3 Bft)
01.03.2015 05:50 5,6 C 3,9 C 94 % 1001,2 hPa 0,0 l/m 0 min 2 min 0 W/m 16,7 km/h (3 Bft)
01.03.2015 05:52 5,6 C 3,9 C 94 % 1001,2 hPa 0,0 l/m 0 min 0 min 0 W/m 23,0 km/h (4 Bft)
01.03.2015 05:54 5,7 C 4,4 C 94 % 1001,2 hPa 0,0 l/m 0 min 2 min 0 W/m 20,9 km/h (4 Bft)
01.03.2015 05:56 5,7 C 4,4 C 94 % 1001,1 hPa 0,0 l/m 0 min 2 min 0 W/m 20,9 km/h (4 Bft)
01.03.2015 05:58 5,7 C 4,4 C 94 % 1001,1 hPa 0,2 l/m 0 min 2 min 0 W/m 18,8 km/h (3 Bft)
01.03.2015 06:00 5,7 C 4,4 C 94 % 1001,1 hPa 0,0 l/m 0 min 0 min 0 W/m 20,9 km/h (4 Bft)
01.03.2015 06:02 5,8 C 4,4 C 94 % 1001,1 hPa 0,0 l/m 0 min 0 min 0 W/m 14,6 km/h (3 Bft)
01.03.2015 06:04 5,8 C 4,4 C 94 % 1001,1 hPa 0,0 l/m 0 min 2 min 0 W/m 16,7 km/h (3 Bft)
01.03.2015 06:06 5,8 C 4,4 C 94 % 1001,1 hPa 0,0 l/m 0 min 2 min 0 W/m 20,9 km/h (4 Bft)
01.03.2015 06:08 5,8 C 4,4 C 94 % 1001,0 hPa 0,0 l/m 0 min 2 min 0 W/m 16,7 km/h (3 Bft)
01.03.2015 06:10 5,8 C 4,4 C 94 % 1000,9 hPa 0,0 l/m 0 min 2 min 0 W/m 16,7 km/h (3 Bft)
01.03.2015 06:12 5,9 C 4,4 C 94 % 1001,0 hPa 0,0 l/m 0 min 0 min 0 W/m 23,0 km/h (4 Bft)
01.03.2015 06:14 5,9 C 4,4 C 94 % 1000,9 hPa 0,0 l/m 0 min 2 min 0 W/m 16,7 km/h (3 Bft)
01.03.2015 06:16 5,9 C 4,4 C 94 % 1000,9 hPa 0,0 l/m 0 min 2 min 0 W/m 16,7 km/h (3 Bft)
01.03.2015 06:18 5,9 C 4,4 C 94 % 1000,9 hPa 0,0 l/m 0 min 2 min 0 W/m 14,6 km/h (3 Bft)
01.03.2015 06:20 5,9 C 4,4 C 95 % 1000,9 hPa 0,0 l/m 0 min 2 min 0 W/m 14,6 km/h (3 Bft)
01.03.2015 06:22 5,9 C 4,4 C 95 % 1000,9 hPa 0,0 l/m 0 min 2 min 0 W/m 25,1 km/h (4 Bft)
01.03.2015 06:24 6,0 C 4,4 C 95 % 1000,9 hPa 0,0 l/m 0 min 2 min 0 W/m 27,2 km/h (4 Bft)
01.03.2015 06:26 6,0 C 4,4 C 95 % 1000,8 hPa 0,0 l/m 0 min 2 min 0 W/m 23,0 km/h (4 Bft)
01.03.2015 06:28 6,1 C 4,4 C 95 % 1000,8 hPa 0,0 l/m 0 min 2 min 0 W/m 25,1 km/h (4 Bft)
01.03.2015 06:30 6,1 C 4,4 C 95 % 1000,8 hPa 0,0 l/m 0 min 2 min 0 W/m 16,7 km/h (3 Bft)
01.03.2015 06:32 6,1 C 4,4 C 95 % 1000,7 hPa 0,0 l/m 0 min 2 min 0 W/m 27,2 km/h (4 Bft)
01.03.2015 06:34 6,2 C 4,4 C 95 % 1000,7 hPa 0,0 l/m 0 min 2 min 0 W/m 20,9 km/h (4 Bft)
01.03.2015 06:36 6,2 C 5,0 C 95 % 1000,7 hPa 0,0 l/m 0 min 2 min 0 W/m 27,2 km/h (4 Bft)
01.03.2015 06:38 6,3 C 5,0 C 95 % 1000,7 hPa 0,0 l/m 0 min 2 min 0 W/m 18,8 km/h (3 Bft)
01.03.2015 06:40 6,3 C 5,0 C 95 % 1000,6 hPa 0,0 l/m 0 min 2 min 0 W/m 25,1 km/h (4 Bft)
01.03.2015 06:42 6,3 C 5,0 C 95 % 1000,7 hPa 0,0 l/m 0 min 2 min 0 W/m 18,8 km/h (3 Bft)
01.03.2015 06:44 6,4 C 5,0 C 95 % 1000,6 hPa 0,0 l/m 0 min 0 min 0 W/m 27,2 km/h (4 Bft)
01.03.2015 06:46 6,4 C 5,0 C 95 % 1000,7 hPa 0,0 l/m 0 min 2 min 0 W/m 20,9 km/h (4 Bft)
01.03.2015 06:48 6,4 C 5,0 C 95 % 1000,8 hPa 0,0 l/m 0 min 2 min 0 W/m 25,1 km/h (4 Bft)
01.03.2015 06:50 6,4 C 5,0 C 95 % 1000,7 hPa 0,0 l/m 0 min 2 min 0 W/m 20,9 km/h (4 Bft)
01.03.2015 06:52 6,5 C 5,0 C 95 % 1000,7 hPa 0,0 l/m 0 min 2 min 0 W/m 35,6 km/h (5 Bft)
01.03.2015 06:54 6,5 C 5,0 C 95 % 1000,7 hPa 0,0 l/m 0 min 2 min 0 W/m 33,5 km/h (5 Bft)
01.03.2015 06:56 6,6 C 5,0 C 95 % 1000,7 hPa 0,0 l/m 0 min 2 min 0 W/m 27,2 km/h (4 Bft)
01.03.2015 06:58 6,6 C 5,0 C 95 % 1000,6 hPa 0,0 l/m 0 min 2 min 0 W/m 31,4 km/h (5 Bft)
01.03.2015 07:00 6,6 C 5,0 C 95 % 1000,7 hPa 0,0 l/m 0 min 2 min 0 W/m 29,3 km/h (5 Bft)
01.03.2015 07:02 6,7 C 5,0 C 95 % 1000,7 hPa 0,0 l/m 0 min 2 min 0 W/m 16,7 km/h (3 Bft)
01.03.2015 07:04 6,7 C 5,0 C 95 % 1000,7 hPa 0,0 l/m 0 min 2 min 0 W/m 31,4 km/h (5 Bft)
01.03.2015 07:06 6,7 C 5,0 C 95 % 1000,7 hPa 0,0 l/m 0 min 2 min 0 W/m 20,9 km/h (4 Bft)
01.03.2015 07:08 6,7 C 5,0 C 95 % 1000,8 hPa 0,0 l/m 0 min 2 min 0 W/m 20,9 km/h (4 Bft)
01.03.2015 07:10 6,7 C 5,0 C 95 % 1000,8 hPa 0,0 l/m 0 min 2 min 0 W/m 18,8 km/h (3 Bft)
01.03.2015 07:12 6,7 C 5,0 C 95 % 1000,9 hPa 0,0 l/m 0 min 2 min 0 W/m 16,7 km/h (3 Bft)
01.03.2015 07:14 6,7 C 5,0 C 95 % 1000,9 hPa 0,0 l/m 0 min 2 min 0 W/m 20,9 km/h (4 Bft)
01.03.2015 07:16 6,8 C 5,0 C 95 % 1000,9 hPa 0,0 l/m 0 min 2 min 0 W/m 20,9 km/h (4 Bft)
01.03.2015 07:18 6,8 C 5,0 C 95 % 1000,9 hPa 0,0 l/m 0 min 2 min 0 W/m 31,4 km/h (5 Bft)
01.03.2015 07:20 6,8 C 5,0 C 95 % 1000,9 hPa 0,0 l/m 0 min 2 min 0 W/m 25,1 km/h (4 Bft)
01.03.2015 07:22 6,8 C 5,0 C 95 % 1000,9 hPa 0,0 l/m 0 min 2 min 0 W/m 18,8 km/h (3 Bft)
01.03.2015 07:24 6,8 C 5,0 C 95 % 1000,9 hPa 0,0 l/m 0 min 2 min 0 W/m 18,8 km/h (3 Bft)
01.03.2015 07:26 6,8 C 5,0 C 95 % 1000,9 hPa 0,0 l/m 0 min 2 min 0 W/m 25,1 km/h (4 Bft)
01.03.2015 07:28 6,8 C 5,0 C 95 % 1000,9 hPa 0,0 l/m 0 min 2 min 0 W/m 25,1 km/h (4 Bft)
01.03.2015 07:30 6,9 C 5,0 C 95 % 1000,9 hPa 0,0 l/m 0 min 2 min 0 W/m 20,9 km/h (4 Bft)
01.03.2015 07:32 6,9 C 5,0 C 95 % 1000,9 hPa 0,0 l/m 0 min 2 min 0 W/m 20,9 km/h (4 Bft)
01.03.2015 07:34 6,9 C 5,6 C 95 % 1000,9 hPa 0,0 l/m 0 min 2 min 0 W/m 23,0 km/h (4 Bft)
01.03.2015 07:36 6,9 C 5,6 C 95 % 1001,1 hPa 0,2 l/m 0 min 2 min 0 W/m 25,1 km/h (4 Bft)
01.03.2015 07:38 7,0 C 5,6 C 96 % 1000,9 hPa 0,0 l/m 0 min 2 min 0 W/m 20,9 km/h (4 Bft)
01.03.2015 07:40 7,0 C 5,6 C 96 % 1000,9 hPa 0,0 l/m 0 min 2 min 0 W/m 25,1 km/h (4 Bft)
01.03.2015 07:42 7,0 C 5,6 C 96 % 1000,9 hPa 0,0 l/m 0 min 2 min 0 W/m 20,9 km/h (4 Bft)
01.03.2015 07:44 7,1 C 5,6 C 96 % 1000,9 hPa 0,0 l/m 0 min 2 min 0 W/m 31,4 km/h (5 Bft)
01.03.2015 07:46 7,1 C 5,6 C 96 % 1000,9 hPa 0,0 l/m 0 min 2 min 2 W/m 20,9 km/h (4 Bft)
01.03.2015 07:48 7,1 C 5,6 C 96 % 1000,9 hPa 0,0 l/m 0 min 2 min 2 W/m 18,8 km/h (3 Bft)
01.03.2015 07:50 7,1 C 5,6 C 96 % 1000,9 hPa 0,0 l/m 0 min 2 min 5 W/m 31,4 km/h (5 Bft)
01.03.2015 07:52 7,1 C 5,6 C 96 % 1000,9 hPa 0,0 l/m 0 min 2 min 5 W/m 27,2 km/h (4 Bft)
01.03.2015 07:54 7,1 C 5,6 C 96 % 1000,9 hPa 0,0 l/m 0 min 2 min 5 W/m 27,2 km/h (4 Bft)
01.03.2015 07:56 7,1 C 5,6 C 96 % 1000,9 hPa 0,0 l/m 0 min 2 min 6 W/m 25,1 km/h (4 Bft)
01.03.2015 07:58 7,1 C 5,6 C 96 % 1000,9 hPa 0,0 l/m 0 min 2 min 8 W/m 31,4 km/h (5 Bft)
01.03.2015 08:00 7,2 C 5,6 C 96 % 1000,8 hPa 0,0 l/m 0 min 2 min 10 W/m 29,3 km/h (5 Bft)
01.03.2015 08:02 7,2 C 5,6 C 96 % 1000,8 hPa 0,0 l/m 0 min 2 min 14 W/m 25,1 km/h (4 Bft)
01.03.2015 08:04 7,2 C 5,6 C 96 % 1000,9 hPa 0,0 l/m 0 min 2 min 13 W/m 25,1 km/h (4 Bft)
01.03.2015 08:06 7,2 C 5,6 C 96 % 1000,8 hPa 0,0 l/m 0 min 2 min 13 W/m 31,4 km/h (5 Bft)
01.03.2015 08:08 7,2 C 5,6 C 96 % 1000,8 hPa 0,0 l/m 0 min 2 min 18 W/m 31,4 km/h (5 Bft)
01.03.2015 08:10 7,2 C 5,6 C 96 % 1000,9 hPa 0,0 l/m 0 min 2 min 20 W/m 29,3 km/h (5 Bft)
01.03.2015 08:12 7,3 C 5,6 C 96 % 1001,0 hPa 0,0 l/m 0 min 2 min 20 W/m 33,5 km/h (5 Bft)
01.03.2015 08:14 7,3 C 5,6 C 96 % 1000,9 hPa 0,0 l/m 0 min 2 min 22 W/m 35,6 km/h (5 Bft)
01.03.2015 08:16 7,3 C 5,6 C 96 % 1000,9 hPa 0,0 l/m 0 min 2 min 28 W/m 27,2 km/h (4 Bft)
01.03.2015 08:18 7,3 C 5,6 C 96 % 1000,9 hPa 0,0 l/m 0 min 2 min 34 W/m 31,4 km/h (5 Bft)
01.03.2015 08:20 7,3 C 5,6 C 96 % 1001,0 hPa 0,0 l/m 0 min 2 min 39 W/m 31,4 km/h (5 Bft)
01.03.2015 08:22 7,4 C 5,6 C 96 % 1001,2 hPa 0,0 l/m 0 min 2 min 37 W/m 39,7 km/h (6 Bft)
01.03.2015 08:24 7,4 C 5,6 C 96 % 1001,0 hPa 0,0 l/m 0 min 2 min 39 W/m 31,4 km/h (5 Bft)
01.03.2015 08:26 7,4 C 5,6 C 96 % 1001,0 hPa 0,0 l/m 0 min 2 min 49 W/m 31,4 km/h (5 Bft)
01.03.2015 08:28 7,4 C 5,6 C 96 % 1001,0 hPa 0,0 l/m 0 min 2 min 53 W/m 33,5 km/h (5 Bft)
01.03.2015 08:30 7,4 C 5,6 C 96 % 1001,0 hPa 0,0 l/m 0 min 2 min 53 W/m 25,1 km/h (4 Bft)
01.03.2015 08:32 7,4 C 5,6 C 96 % 1000,9 hPa 0,0 l/m 0 min 2 min 53 W/m 29,3 km/h (5 Bft)
01.03.2015 08:34 7,4 C 5,6 C 96 % 1001,0 hPa 0,0 l/m 0 min 2 min 53 W/m 33,5 km/h (5 Bft)
01.03.2015 08:36 7,4 C 5,6 C 96 % 1001,0 hPa 0,0 l/m 0 min 2 min 55 W/m 31,4 km/h (5 Bft)
01.03.2015 08:38 7,5 C 5,6 C 96 % 1001,0 hPa 0,0 l/m 0 min 2 min 62 W/m 35,6 km/h (5 Bft)
01.03.2015 08:40 7,5 C 5,6 C 96 % 1001,0 hPa 0,0 l/m 0 min 2 min 69 W/m 29,3 km/h (5 Bft)
01.03.2015 08:42 7,5 C 6,1 C 96 % 1001,0 hPa 0,0 l/m 0 min 2 min 84 W/m 31,4 km/h (5 Bft)
01.03.2015 08:44 7,6 C 6,1 C 96 % 1001,0 hPa 0,0 l/m 0 min 2 min 95 W/m 25,1 km/h (4 Bft)
01.03.2015 08:46 7,6 C 6,1 C 96 % 1001,2 hPa 0,0 l/m 2 min 2 min 125 W/m 20,9 km/h (4 Bft)
01.03.2015 08:48 7,6 C 6,1 C 96 % 1001,1 hPa 0,0 l/m 2 min 0 min 144 W/m 29,3 km/h (5 Bft)
01.03.2015 08:50 7,7 C 6,1 C 96 % 1001,2 hPa 0,0 l/m 2 min 0 min 154 W/m 33,5 km/h (5 Bft)
01.03.2015 08:52 7,7 C 6,1 C 96 % 1001,2 hPa 0,0 l/m 2 min 0 min 141 W/m 31,4 km/h (5 Bft)
01.03.2015 08:54 7,8 C 6,7 C 96 % 1001,3 hPa 0,0 l/m 2 min 0 min 138 W/m 29,3 km/h (5 Bft)
01.03.2015 08:56 7,9 C 6,7 C 96 % 1001,3 hPa 0,0 l/m 0 min 2 min 90 W/m 35,6 km/h (5 Bft)
01.03.2015 08:58 7,9 C 6,7 C 96 % 1001,4 hPa 0,0 l/m 0 min 0 min 43 W/m 31,4 km/h (5 Bft)
01.03.2015 09:00 7,9 C 6,7 C 96 % 1001,3 hPa 0,0 l/m 0 min 0 min 37 W/m 35,6 km/h (5 Bft)
01.03.2015 09:02 8,0 C 6,7 C 96 % 1001,4 hPa 0,0 l/m 0 min 0 min 38 W/m 35,6 km/h (5 Bft)
01.03.2015 09:04 8,1 C 6,7 C 96 % 1001,4 hPa 0,0 l/m 0 min 0 min 66 W/m 33,5 km/h (5 Bft)
01.03.2015 09:06 8,1 C 6,7 C 96 % 1001,4 hPa 0,0 l/m 0 min 0 min 110 W/m 29,3 km/h (5 Bft)
01.03.2015 09:08 8,1 C 6,7 C 96 % 1001,4 hPa 0,0 l/m 0 min 0 min 107 W/m 33,5 km/h (5 Bft)
01.03.2015 09:10 8,2 C 6,7 C 95 % 1001,5 hPa 0,0 l/m 0 min 0 min 122 W/m 41,8 km/h (6 Bft)
01.03.2015 09:12 8,3 C 7,2 C 95 % 1001,5 hPa 0,0 l/m 2 min 0 min 196 W/m 31,4 km/h (5 Bft)
01.03.2015 09:14 8,3 C 7,2 C 95 % 1001,5 hPa 0,0 l/m 2 min 0 min 287 W/m 37,7 km/h (5 Bft)
01.03.2015 09:16 8,4 C 7,2 C 95 % 1001,5 hPa 0,0 l/m 2 min 0 min 262 W/m 33,5 km/h (5 Bft)
01.03.2015 09:18 8,5 C 7,2 C 95 % 1001,5 hPa 0,0 l/m 2 min 0 min 172 W/m 27,2 km/h (4 Bft)
01.03.2015 09:20 8,6 C 7,2 C 95 % 1001,6 hPa 0,0 l/m 2 min 0 min 149 W/m 43,9 km/h (6 Bft)
01.03.2015 09:22 8,6 C 7,2 C 95 % 1001,6 hPa 0,0 l/m 2 min 0 min 148 W/m 39,7 km/h (6 Bft)
01.03.2015 09:24 8,7 C 7,2 C 95 % 1001,6 hPa 0,0 l/m 2 min 0 min 154 W/m 43,9 km/h (6 Bft)
01.03.2015 09:26 8,7 C 7,2 C 94 % 1001,4 hPa 0,0 l/m 0 min 0 min 132 W/m 43,9 km/h (6 Bft)
01.03.2015 09:28 8,7 C 7,2 C 94 % 1001,4 hPa 0,0 l/m 0 min 0 min 136 W/m 35,6 km/h (5 Bft)
01.03.2015 09:30 8,8 C 7,2 C 94 % 1001,5 hPa 0,0 l/m 2 min 0 min 260 W/m 39,7 km/h (6 Bft)
01.03.2015 09:32 8,8 C 7,2 C 93 % 1001,5 hPa 0,0 l/m 2 min 0 min 207 W/m 37,7 km/h (5 Bft)
01.03.2015 09:34 8,9 C 7,2 C 93 % 1001,4 hPa 0,0 l/m 2 min 0 min 163 W/m 46,0 km/h (6 Bft)
01.03.2015 09:36 8,9 C 7,2 C 93 % 1001,4 hPa 0,0 l/m 2 min 0 min 208 W/m 37,7 km/h (5 Bft)
01.03.2015 09:38 8,9 C 7,2 C 92 % 1001,4 hPa 0,0 l/m 2 min 0 min 234 W/m 33,5 km/h (5 Bft)
01.03.2015 09:40 9,0 C 7,2 C 92 % 1001,5 hPa 0,0 l/m 2 min 0 min 265 W/m 31,4 km/h (5 Bft)
01.03.2015 09:42 9,1 C 7,2 C 92 % 1001,5 hPa 0,0 l/m 2 min 0 min 291 W/m 35,6 km/h (5 Bft)
01.03.2015 09:44 9,1 C 7,2 C 91 % 1001,6 hPa 0,0 l/m 2 min 0 min 206 W/m 46,0 km/h (6 Bft)
01.03.2015 09:46 9,2 C 7,2 C 90 % 1001,5 hPa 0,0 l/m 0 min 0 min 159 W/m 33,5 km/h (5 Bft)
01.03.2015 09:48 9,2 C 7,2 C 90 % 1001,7 hPa 0,0 l/m 2 min 0 min 207 W/m 37,7 km/h (5 Bft)
01.03.2015 09:50 9,3 C 7,2 C 89 % 1001,6 hPa 0,0 l/m 2 min 0 min 270 W/m 43,9 km/h (6 Bft)
01.03.2015 09:52 9,3 C 7,2 C 89 % 1001,8 hPa 0,0 l/m 2 min 0 min 226 W/m 37,7 km/h (5 Bft)
01.03.2015 09:54 9,4 C 7,2 C 88 % 1001,7 hPa 0,0 l/m 0 min 0 min 120 W/m 35,6 km/h (5 Bft)
01.03.2015 09:56 9,4 C 7,2 C 87 % 1001,6 hPa 0,0 l/m 0 min 0 min 76 W/m 46,0 km/h (6 Bft)
01.03.2015 09:58 9,4 C 7,2 C 86 % 1001,6 hPa 0,0 l/m 0 min 0 min 75 W/m 43,9 km/h (6 Bft)
01.03.2015 10:00 9,4 C 7,2 C 86 % 1001,8 hPa 0,0 l/m 0 min 0 min 83 W/m 43,9 km/h (6 Bft)
01.03.2015 10:02 9,4 C 7,2 C 85 % 1001,6 hPa 0,0 l/m 0 min 0 min 91 W/m 39,7 km/h (6 Bft)
01.03.2015 10:04 9,5 C 7,2 C 85 % 1001,7 hPa 0,0 l/m 0 min 0 min 99 W/m 31,4 km/h (5 Bft)
01.03.2015 10:06 9,4 C 6,7 C 85 % 1001,7 hPa 0,0 l/m 0 min 0 min 53 W/m 37,7 km/h (5 Bft)
01.03.2015 10:08 9,4 C 7,2 C 84 % 1001,6 hPa 0,0 l/m 0 min 0 min 76 W/m 37,7 km/h (5 Bft)
01.03.2015 10:10 9,4 C 7,2 C 84 % 1001,8 hPa 0,0 l/m 2 min 0 min 211 W/m 29,3 km/h (5 Bft)
01.03.2015 10:12 9,5 C 7,2 C 84 % 1001,8 hPa 0,0 l/m 2 min 0 min 359 W/m 35,6 km/h (5 Bft)
01.03.2015 10:14 9,5 C 7,2 C 84 % 1001,8 hPa 0,0 l/m 2 min 0 min 371 W/m 37,7 km/h (5 Bft)
01.03.2015 10:16 9,6 C 7,8 C 83 % 1001,9 hPa 0,0 l/m 2 min 0 min 414 W/m 35,6 km/h (5 Bft)
01.03.2015 10:18 9,7 C 7,8 C 83 % 1002,0 hPa 0,0 l/m 2 min 0 min 441 W/m 43,9 km/h (6 Bft)
01.03.2015 10:20 9,8 C 7,8 C 83 % 1002,0 hPa 0,0 l/m 2 min 0 min 457 W/m 43,9 km/h (6 Bft)
01.03.2015 10:22 9,9 C 8,3 C 83 % 1001,9 hPa 0,0 l/m 2 min 0 min 503 W/m 48,1 km/h (6 Bft)
01.03.2015 10:24 10,0 C 8,3 C 82 % 1001,9 hPa 0,0 l/m 2 min 0 min 448 W/m 37,7 km/h (5 Bft)
01.03.2015 10:26 10,1 C 8,3 C 82 % 1001,9 hPa 0,0 l/m 2 min 0 min 430 W/m 43,9 km/h (6 Bft)
01.03.2015 10:28 10,2 C 8,3 C 81 % 1002,1 hPa 0,0 l/m 2 min 0 min 451 W/m 54,4 km/h (7 Bft)
01.03.2015 10:30 10,3 C 7,8 C 80 % 1002,2 hPa 0,0 l/m 2 min 0 min 236 W/m 43,9 km/h (6 Bft)
01.03.2015 10:32 10,3 C 7,8 C 80 % 1002,1 hPa 0,0 l/m 0 min 0 min 178 W/m 60,7 km/h (7 Bft)
01.03.2015 10:34 10,3 C 7,8 C 79 % 1002,0 hPa 0,0 l/m 2 min 0 min 234 W/m 37,7 km/h (5 Bft)
01.03.2015 10:36 10,3 C 7,8 C 79 % 1002,1 hPa 0,0 l/m 2 min 0 min 434 W/m 39,7 km/h (6 Bft)
01.03.2015 10:38 10,3 C 7,8 C 78 % 1002,1 hPa 0,0 l/m 2 min 0 min 332 W/m 54,4 km/h (7 Bft)
01.03.2015 10:40 10,3 C 7,8 C 77 % 1002,1 hPa 0,0 l/m 0 min 0 min 204 W/m 56,5 km/h (7 Bft)
01.03.2015 10:42 10,3 C 7,2 C 77 % 1002,1 hPa 0,0 l/m 0 min 0 min 107 W/m 35,6 km/h (5 Bft)
01.03.2015 10:44 10,3 C 7,8 C 77 % 1002,1 hPa 0,0 l/m 0 min 0 min 107 W/m 39,7 km/h (6 Bft)
01.03.2015 10:46 10,3 C 7,8 C 78 % 1002,2 hPa 0,0 l/m 0 min 0 min 107 W/m 39,7 km/h (6 Bft)
01.03.2015 10:48 10,3 C 7,8 C 77 % 1002,3 hPa 0,0 l/m 0 min 0 min 130 W/m 46,0 km/h (6 Bft)
01.03.2015 10:50 10,2 C 7,8 C 77 % 1002,2 hPa 0,0 l/m 2 min 0 min 229 W/m 41,8 km/h (6 Bft)
01.03.2015 10:52 10,3 C 7,8 C 77 % 1002,2 hPa 0,0 l/m 2 min 0 min 494 W/m 52,3 km/h (7 Bft)
01.03.2015 10:54 10,3 C 8,3 C 77 % 1002,1 hPa 0,0 l/m 2 min 0 min 489 W/m 50,2 km/h (7 Bft)
01.03.2015 10:56 10,3 C 8,3 C 77 % 1002,3 hPa 0,0 l/m 2 min 0 min 452 W/m 60,7 km/h (7 Bft)
01.03.2015 10:58 10,4 C 7,8 C 76 % 1002,2 hPa 0,0 l/m 2 min 0 min 228 W/m 52,3 km/h (7 Bft)
01.03.2015 11:00 10,4 C 8,3 C 76 % 1002,1 hPa 0,0 l/m 2 min 0 min 516 W/m 35,6 km/h (5 Bft)
01.03.2015 11:02 10,4 C 8,3 C 75 % 1002,1 hPa 0,0 l/m 2 min 0 min 256 W/m 43,9 km/h (6 Bft)
01.03.2015 11:04 10,5 C 8,3 C 75 % 1002,1 hPa 0,0 l/m 2 min 0 min 526 W/m 35,6 km/h (5 Bft)
01.03.2015 11:06 10,6 C 8,3 C 74 % 1002,2 hPa 0,0 l/m 2 min 0 min 534 W/m 39,7 km/h (6 Bft)
01.03.2015 11:08 10,6 C 8,3 C 73 % 1002,1 hPa 0,0 l/m 0 min 0 min 229 W/m 46,0 km/h (6 Bft)
01.03.2015 11:10 10,6 C 8,3 C 74 % 1002,1 hPa 0,0 l/m 2 min 0 min 253 W/m 41,8 km/h (6 Bft)
01.03.2015 11:12 10,6 C 8,3 C 74 % 1002,1 hPa 0,0 l/m 2 min 0 min 326 W/m 41,8 km/h (6 Bft)
01.03.2015 11:14 10,6 C 8,3 C 73 % 1002,1 hPa 0,0 l/m 0 min 0 min 222 W/m 33,5 km/h (5 Bft)
01.03.2015 11:16 10,6 C 8,3 C 73 % 1002,2 hPa 0,0 l/m 2 min 0 min 241 W/m 37,7 km/h (5 Bft)
01.03.2015 11:18 10,6 C 8,3 C 74 % 1002,1 hPa 0,0 l/m 0 min 0 min 222 W/m 43,9 km/h (6 Bft)
01.03.2015 11:20 10,6 C 8,3 C 74 % 1002,2 hPa 0,0 l/m 0 min 0 min 210 W/m 39,7 km/h (6 Bft)
01.03.2015 11:22 10,5 C 8,3 C 73 % 1002,1 hPa 0,0 l/m 0 min 0 min 155 W/m 37,7 km/h (5 Bft)
01.03.2015 11:24 10,5 C 8,3 C 73 % 1002,2 hPa 0,0 l/m 0 min 0 min 149 W/m 37,7 km/h (5 Bft)
01.03.2015 11:26 10,5 C 8,3 C 74 % 1002,1 hPa 0,0 l/m 2 min 0 min 381 W/m 37,7 km/h (5 Bft)
01.03.2015 11:28 10,5 C 8,3 C 74 % 1002,2 hPa 0,0 l/m 2 min 0 min 287 W/m 41,8 km/h (6 Bft)
01.03.2015 11:30 10,5 C 8,3 C 74 % 1002,1 hPa 0,0 l/m 0 min 0 min 154 W/m 37,7 km/h (5 Bft)
01.03.2015 11:32 10,4 C 7,8 C 73 % 1002,2 hPa 0,0 l/m 0 min 0 min 127 W/m 39,7 km/h (6 Bft)
01.03.2015 11:34 10,3 C 7,8 C 73 % 1002,3 hPa 0,0 l/m 0 min 0 min 99 W/m 31,4 km/h (5 Bft)
01.03.2015 11:36 10,3 C 7,8 C 73 % 1002,3 hPa 0,0 l/m 0 min 0 min 97 W/m 33,5 km/h (5 Bft)
01.03.2015 11:38 10,2 C 7,2 C 72 % 1002,2 hPa 0,0 l/m 0 min 0 min 107 W/m 39,7 km/h (6 Bft)
01.03.2015 11:40 10,1 C 7,2 C 72 % 1002,3 hPa 0,0 l/m 0 min 0 min 138 W/m 27,2 km/h (4 Bft)
01.03.2015 11:42 10,1 C 7,2 C 73 % 1002,1 hPa 0,0 l/m 0 min 0 min 153 W/m 35,6 km/h (5 Bft)
01.03.2015 11:44 10,1 C 7,8 C 73 % 1002,1 hPa 0,0 l/m 0 min 0 min 187 W/m 37,7 km/h (5 Bft)
01.03.2015 11:46 10,1 C 7,8 C 73 % 1002,2 hPa 0,0 l/m 2 min 0 min 527 W/m 29,3 km/h (5 Bft)
01.03.2015 11:48 10,2 C 8,3 C 74 % 1002,3 hPa 0,0 l/m 2 min 0 min 526 W/m 37,7 km/h (5 Bft)
01.03.2015 11:50 10,3 C 8,3 C 73 % 1002,3 hPa 0,0 l/m 2 min 0 min 530 W/m 41,8 km/h (6 Bft)
01.03.2015 11:52 10,4 C 8,9 C 72 % 1002,3 hPa 0,0 l/m 2 min 0 min 533 W/m 41,8 km/h (6 Bft)
01.03.2015 11:54 10,6 C 8,9 C 72 % 1002,2 hPa 0,0 l/m 2 min 0 min 529 W/m 33,5 km/h (5 Bft)
01.03.2015 11:56 10,7 C 8,9 C 72 % 1002,3 hPa 0,0 l/m 2 min 0 min 534 W/m 39,7 km/h (6 Bft)
01.03.2015 11:58 10,8 C 8,9 C 70 % 1002,4 hPa 0,0 l/m 2 min 0 min 534 W/m 54,4 km/h (7 Bft)
01.03.2015 12:00 10,9 C 8,9 C 69 % 1002,4 hPa 0,0 l/m 2 min 0 min 529 W/m 52,3 km/h (7 Bft)
01.03.2015 12:02 10,9 C 8,9 C 68 % 1002,3 hPa 0,0 l/m 2 min 0 min 535 W/m 56,5 km/h (7 Bft)
01.03.2015 12:06 11,1 C 8,9 C 67 % 1002,4 hPa 0,0 l/m 2 min 0 min 542 W/m 64,9 km/h (8 Bft)
01.03.2015 12:08 11,2 C 8,9 C 67 % 1002,5 hPa 0,0 l/m 2 min 0 min 569 W/m 54,4 km/h (7 Bft)
01.03.2015 12:10 11,3 C 8,9 C 66 % 1002,2 hPa 0,0 l/m 2 min 0 min 588 W/m 58,6 km/h (7 Bft)
01.03.2015 12:12 11,3 C 8,9 C 66 % 1002,3 hPa 0,0 l/m 2 min 0 min 568 W/m 60,7 km/h (7 Bft)
01.03.2015 12:14 11,3 C 8,9 C 66 % 1002,4 hPa 0,0 l/m 2 min 0 min 567 W/m 46,0 km/h (6 Bft)
01.03.2015 12:16 11,4 C 9,4 C 66 % 1002,4 hPa 0,0 l/m 2 min 0 min 624 W/m 50,2 km/h (7 Bft)
01.03.2015 12:18 11,4 C 8,9 C 67 % 1002,5 hPa 0,0 l/m 2 min 0 min 606 W/m 46,0 km/h (6 Bft)
01.03.2015 12:20 11,4 C 9,4 C 66 % 1002,7 hPa 0,0 l/m 2 min 0 min 344 W/m 50,2 km/h (7 Bft)
01.03.2015 12:22 11,4 C 9,4 C 67 % 1002,6 hPa 0,0 l/m 2 min 0 min 620 W/m 48,1 km/h (6 Bft)
01.03.2015 12:24 11,5 C 10,0 C 67 % 1002,5 hPa 0,0 l/m 2 min 0 min 637 W/m 46,0 km/h (6 Bft)
01.03.2015 12:26 11,6 C 10,0 C 66 % 1002,4 hPa 0,0 l/m 2 min 0 min 383 W/m 43,9 km/h (6 Bft)
01.03.2015 12:28 11,6 C 10,0 C 66 % 1002,6 hPa 0,0 l/m 0 min 0 min 216 W/m 41,8 km/h (6 Bft)
01.03.2015 12:30 11,5 C 9,4 C 65 % 1002,6 hPa 0,0 l/m 0 min 0 min 152 W/m 50,2 km/h (7 Bft)
01.03.2015 12:32 11,4 C 9,4 C 65 % 1002,5 hPa 0,0 l/m 0 min 0 min 136 W/m 56,5 km/h (7 Bft)
01.03.2015 12:34 11,3 C 9,4 C 65 % 1002,6 hPa 0,0 l/m 0 min 0 min 218 W/m 35,6 km/h (5 Bft)
01.03.2015 12:36 11,2 C 9,4 C 65 % 1002,7 hPa 0,0 l/m 2 min 0 min 401 W/m 56,5 km/h (7 Bft)
01.03.2015 12:38 11,2 C 10,0 C 65 % 1002,6 hPa 0,0 l/m 2 min 0 min 659 W/m 52,3 km/h (7 Bft)
01.03.2015 12:40 11,2 C 10,6 C 66 % 1002,6 hPa 0,0 l/m 2 min 0 min 709 W/m 41,8 km/h (6 Bft)
01.03.2015 12:42 11,4 C 10,6 C 67 % 1002,5 hPa 0,0 l/m 2 min 0 min 668 W/m 33,5 km/h (5 Bft)
01.03.2015 12:44 11,5 C 10,6 C 66 % 1002,5 hPa 0,0 l/m 2 min 0 min 621 W/m 46,0 km/h (6 Bft)
01.03.2015 12:46 11,6 C 10,6 C 66 % 1002,7 hPa 0,0 l/m 2 min 0 min 584 W/m 48,1 km/h (6 Bft)
01.03.2015 12:48 11,7 C 10,6 C 66 % 1002,5 hPa 0,0 l/m 2 min 0 min 564 W/m 29,3 km/h (5 Bft)
01.03.2015 12:50 11,8 C 10,6 C 67 % 1002,5 hPa 0,0 l/m 2 min 0 min 565 W/m 48,1 km/h (6 Bft)
01.03.2015 12:52 11,9 C 10,6 C 65 % 1002,5 hPa 0,0 l/m 2 min 0 min 567 W/m 54,4 km/h (7 Bft)
01.03.2015 12:54 11,9 C 10,6 C 66 % 1002,5 hPa 0,0 l/m 0 min 0 min 238 W/m 27,2 km/h (4 Bft)
01.03.2015 12:56 12,0 C 10,6 C 66 % 1002,6 hPa 0,0 l/m 2 min 0 min 646 W/m 33,5 km/h (5 Bft)
01.03.2015 12:58 12,1 C 10,6 C 66 % 1002,7 hPa 0,0 l/m 0 min 0 min 254 W/m 39,7 km/h (6 Bft)
01.03.2015 13:00 12,1 C 10,6 C 65 % 1002,5 hPa 0,0 l/m 0 min 0 min 199 W/m 46,0 km/h (6 Bft)
01.03.2015 13:02 12,0 C 10,6 C 64 % 1002,4 hPa 0,0 l/m 0 min 0 min 228 W/m 56,5 km/h (7 Bft)
01.03.2015 13:04 11,9 C 10,6 C 64 % 1002,5 hPa 0,0 l/m 0 min 0 min 228 W/m 43,9 km/h (6 Bft)
01.03.2015 13:06 11,9 C 10,6 C 64 % 1002,5 hPa 0,0 l/m 2 min 0 min 278 W/m 33,5 km/h (5 Bft)
01.03.2015 13:08 11,8 C 10,6 C 64 % 1002,6 hPa 0,0 l/m 0 min 0 min 227 W/m 52,3 km/h (7 Bft)
01.03.2015 13:10 11,7 C 10,0 C 64 % 1002,5 hPa 0,0 l/m 0 min 0 min 209 W/m 52,3 km/h (7 Bft)
01.03.2015 13:12 11,6 C 10,0 C 64 % 1002,5 hPa 0,0 l/m 0 min 0 min 239 W/m 41,8 km/h (6 Bft)
01.03.2015 13:14 11,6 C 10,0 C 66 % 1002,4 hPa 0,0 l/m 2 min 0 min 343 W/m 35,6 km/h (5 Bft)
01.03.2015 13:16 11,6 C 10,0 C 66 % 1002,3 hPa 0,0 l/m 2 min 0 min 536 W/m 31,4 km/h (5 Bft)
01.03.2015 13:18 11,6 C 10,6 C 66 % 1002,3 hPa 0,0 l/m 2 min 0 min 582 W/m 41,8 km/h (6 Bft)
01.03.2015 13:20 11,7 C 10,6 C 67 % 1002,4 hPa 0,0 l/m 2 min 0 min 438 W/m 33,5 km/h (5 Bft)
01.03.2015 13:22 11,7 C 10,0 C 67 % 1002,3 hPa 0,0 l/m 0 min 0 min 163 W/m 31,4 km/h (5 Bft)
01.03.2015 13:24 11,7 C 10,6 C 67 % 1002,2 hPa 0,0 l/m 0 min 0 min 163 W/m 39,7 km/h (6 Bft)
01.03.2015 13:26 11,7 C 10,6 C 67 % 1002,1 hPa 0,0 l/m 2 min 0 min 389 W/m 39,7 km/h (6 Bft)
01.03.2015 13:28 11,7 C 10,6 C 67 % 1002,1 hPa 0,0 l/m 2 min 0 min 342 W/m 31,4 km/h (5 Bft)
01.03.2015 13:30 11,7 C 10,6 C 67 % 1002,0 hPa 0,0 l/m 2 min 0 min 297 W/m 37,7 km/h (5 Bft)
01.03.2015 13:32 11,7 C 10,6 C 67 % 1002,0 hPa 0,0 l/m 2 min 0 min 292 W/m 48,1 km/h (6 Bft)
01.03.2015 13:34 11,7 C 10,6 C 67 % 1002,0 hPa 0,0 l/m 2 min 0 min 360 W/m 43,9 km/h (6 Bft)
01.03.2015 13:36 11,6 C 10,6 C 67 % 1002,1 hPa 0,0 l/m 2 min 0 min 338 W/m 48,1 km/h (6 Bft)
01.03.2015 13:38 11,6 C 10,6 C 67 % 1002,1 hPa 0,0 l/m 2 min 0 min 354 W/m 54,4 km/h (7 Bft)
01.03.2015 13:40 11,5 C 10,6 C 67 % 1002,1 hPa 0,0 l/m 2 min 0 min 339 W/m 48,1 km/h (6 Bft)
01.03.2015 13:42 11,5 C 10,6 C 68 % 1002,1 hPa 0,0 l/m 2 min 0 min 350 W/m 41,8 km/h (6 Bft)
01.03.2015 13:44 11,4 C 10,6 C 67 % 1002,0 hPa 0,0 l/m 2 min 0 min 339 W/m 46,0 km/h (6 Bft)
01.03.2015 13:46 11,4 C 10,6 C 68 % 1002,1 hPa 0,0 l/m 2 min 0 min 311 W/m 43,9 km/h (6 Bft)
01.03.2015 13:48 11,4 C 10,6 C 68 % 1002,1 hPa 0,0 l/m 2 min 0 min 309 W/m 48,1 km/h (6 Bft)
01.03.2015 13:50 11,4 C 10,6 C 68 % 1002,1 hPa 0,0 l/m 2 min 0 min 314 W/m 50,2 km/h (7 Bft)
01.03.2015 13:52 11,3 C 10,6 C 68 % 1002,2 hPa 0,0 l/m 2 min 0 min 286 W/m 43,9 km/h (6 Bft)
01.03.2015 13:54 11,3 C 10,6 C 68 % 1002,2 hPa 0,0 l/m 2 min 0 min 269 W/m 52,3 km/h (7 Bft)
01.03.2015 13:56 11,3 C 10,6 C 68 % 1002,2 hPa 0,0 l/m 2 min 0 min 264 W/m 39,7 km/h (6 Bft)
01.03.2015 13:58 11,2 C 10,0 C 68 % 1002,0 hPa 0,0 l/m 0 min 0 min 219 W/m 46,0 km/h (6 Bft)
01.03.2015 14:00 11,2 C 10,0 C 68 % 1002,1 hPa 0,0 l/m 0 min 0 min 198 W/m 37,7 km/h (5 Bft)
01.03.2015 14:02 11,2 C 10,0 C 68 % 1002,1 hPa 0,0 l/m 0 min 0 min 188 W/m 43,9 km/h (6 Bft)
01.03.2015 14:04 11,1 C 10,0 C 68 % 1002,1 hPa 0,0 l/m 0 min 0 min 183 W/m 41,8 km/h (6 Bft)
01.03.2015 14:06 11,1 C 10,0 C 68 % 1002,1 hPa 0,0 l/m 0 min 0 min 178 W/m 50,2 km/h (7 Bft)
01.03.2015 14:08 11,0 C 10,0 C 68 % 1002,1 hPa 0,0 l/m 0 min 0 min 180 W/m 50,2 km/h (7 Bft)
01.03.2015 14:10 10,9 C 10,0 C 68 % 1002,2 hPa 0,0 l/m 0 min 0 min 182 W/m 50,2 km/h (7 Bft)
01.03.2015 14:12 10,9 C 10,0 C 69 % 1002,0 hPa 0,0 l/m 0 min 0 min 188 W/m 46,0 km/h (6 Bft)
01.03.2015 14:14 10,9 C 10,0 C 69 % 1002,0 hPa 0,0 l/m 0 min 0 min 210 W/m 48,1 km/h (6 Bft)
01.03.2015 14:16 10,9 C 10,0 C 69 % 1002,0 hPa 0,0 l/m 0 min 0 min 205 W/m 39,7 km/h (6 Bft)
01.03.2015 14:18 10,9 C 10,0 C 70 % 1002,0 hPa 0,0 l/m 0 min 0 min 196 W/m 31,4 km/h (5 Bft)
01.03.2015 14:20 10,9 C 10,0 C 70 % 1002,0 hPa 0,0 l/m 0 min 0 min 199 W/m 46,0 km/h (6 Bft)
01.03.2015 14:22 10,9 C 10,0 C 69 % 1002,0 hPa 0,0 l/m 0 min 0 min 198 W/m 41,8 km/h (6 Bft)
01.03.2015 14:24 10,9 C 10,0 C 69 % 1002,1 hPa 0,0 l/m 0 min 0 min 177 W/m 58,6 km/h (7 Bft)
01.03.2015 14:26 10,9 C 9,4 C 69 % 1002,0 hPa 0,0 l/m 0 min 0 min 145 W/m 46,0 km/h (6 Bft)
01.03.2015 14:28 10,8 C 9,4 C 69 % 1002,1 hPa 0,0 l/m 0 min 0 min 140 W/m 37,7 km/h (5 Bft)
01.03.2015 14:30 10,8 C 9,4 C 70 % 1002,1 hPa 0,0 l/m 0 min 0 min 138 W/m 60,7 km/h (7 Bft)
01.03.2015 14:32 10,8 C 9,4 C 70 % 1002,1 hPa 0,0 l/m 0 min 0 min 138 W/m 41,8 km/h (6 Bft)
01.03.2015 14:34 10,8 C 9,4 C 70 % 1002,1 hPa 0,0 l/m 0 min 0 min 155 W/m 35,6 km/h (5 Bft)
01.03.2015 14:36 10,8 C 9,4 C 70 % 1002,2 hPa 0,0 l/m 0 min 0 min 155 W/m 64,9 km/h (8 Bft)
01.03.2015 14:38 10,7 C 9,4 C 69 % 1002,1 hPa 0,0 l/m 0 min 0 min 159 W/m 48,1 km/h (6 Bft)
01.03.2015 14:40 10,7 C 9,4 C 69 % 1002,1 hPa 0,0 l/m 0 min 0 min 178 W/m 60,7 km/h (7 Bft)
01.03.2015 14:42 10,6 C 9,4 C 69 % 1002,2 hPa 0,0 l/m 0 min 0 min 197 W/m 37,7 km/h (5 Bft)
01.03.2015 14:44 10,6 C 9,4 C 68 % 1002,1 hPa 0,0 l/m 0 min 0 min 216 W/m 52,3 km/h (7 Bft)
01.03.2015 14:46 10,6 C 10,0 C 68 % 1002,2 hPa 0,0 l/m 2 min 0 min 220 W/m 56,5 km/h (7 Bft)
01.03.2015 14:48 10,6 C 9,4 C 67 % 1002,2 hPa 0,0 l/m 0 min 0 min 201 W/m 62,8 km/h (8 Bft)
01.03.2015 14:50 10,6 C 9,4 C 66 % 1002,3 hPa 0,0 l/m 2 min 0 min 528 W/m 60,7 km/h (7 Bft)
01.03.2015 14:52 10,6 C 9,4 C 66 % 1002,3 hPa 0,0 l/m 2 min 0 min 475 W/m 52,3 km/h (7 Bft)
01.03.2015 14:54 10,7 C 9,4 C 66 % 1002,2 hPa 0,0 l/m 2 min 0 min 458 W/m 50,2 km/h (7 Bft)
01.03.2015 14:56 10,8 C 10,0 C 67 % 1002,2 hPa 0,0 l/m 2 min 0 min 441 W/m 41,8 km/h (6 Bft)
01.03.2015 14:58 10,8 C 9,4 C 66 % 1002,1 hPa 0,0 l/m 2 min 0 min 428 W/m 50,2 km/h (7 Bft)
01.03.2015 15:00 10,9 C 9,4 C 67 % 1002,1 hPa 0,0 l/m 2 min 0 min 417 W/m 46,0 km/h (6 Bft)
01.03.2015 15:02 10,9 C 9,4 C 66 % 1002,1 hPa 0,0 l/m 2 min 0 min 411 W/m 48,1 km/h (6 Bft)
01.03.2015 15:04 10,9 C 9,4 C 66 % 1002,1 hPa 0,0 l/m 2 min 0 min 404 W/m 50,2 km/h (7 Bft)
01.03.2015 15:06 10,9 C 9,4 C 66 % 1002,1 hPa 0,0 l/m 2 min 0 min 403 W/m 48,1 km/h (6 Bft)
01.03.2015 15:08 11,0 C 9,4 C 66 % 1002,0 hPa 0,0 l/m 2 min 0 min 398 W/m 37,7 km/h (5 Bft)
01.03.2015 15:10 11,1 C 9,4 C 67 % 1002,0 hPa 0,0 l/m 2 min 0 min 396 W/m 35,6 km/h (5 Bft)
01.03.2015 15:12 11,1 C 9,4 C 67 % 1002,0 hPa 0,0 l/m 2 min 0 min 391 W/m 35,6 km/h (5 Bft)
01.03.2015 15:14 11,1 C 9,4 C 67 % 1002,1 hPa 0,0 l/m 2 min 0 min 386 W/m 41,8 km/h (6 Bft)
01.03.2015 15:16 11,2 C 9,4 C 67 % 1002,0 hPa 0,0 l/m 2 min 0 min 381 W/m 43,9 km/h (6 Bft)
01.03.2015 15:18 11,2 C 9,4 C 67 % 1002,0 hPa 0,0 l/m 2 min 0 min 378 W/m 41,8 km/h (6 Bft)
01.03.2015 15:20 11,2 C 9,4 C 67 % 1002,1 hPa 0,0 l/m 2 min 0 min 374 W/m 37,7 km/h (5 Bft)
01.03.2015 15:22 11,2 C 9,4 C 67 % 1002,1 hPa 0,0 l/m 2 min 0 min 371 W/m 39,7 km/h (6 Bft)
01.03.2015 15:24 11,2 C 9,4 C 67 % 1002,1 hPa 0,0 l/m 2 min 0 min 369 W/m 41,8 km/h (6 Bft)
01.03.2015 15:26 11,3 C 10,0 C 67 % 1002,1 hPa 0,0 l/m 2 min 0 min 370 W/m 35,6 km/h (5 Bft)
01.03.2015 15:28 11,3 C 10,0 C 67 % 1002,0 hPa 0,0 l/m 2 min 0 min 372 W/m 29,3 km/h (5 Bft)
01.03.2015 15:30 11,3 C 10,0 C 67 % 1002,0 hPa 0,0 l/m 2 min 0 min 369 W/m 41,8 km/h (6 Bft)
01.03.2015 15:32 11,4 C 10,0 C 67 % 1002,0 hPa 0,0 l/m 2 min 0 min 375 W/m 39,7 km/h (6 Bft)
01.03.2015 15:34 11,4 C 10,0 C 67 % 1002,0 hPa 0,0 l/m 2 min 0 min 382 W/m 43,9 km/h (6 Bft)
01.03.2015 15:36 11,4 C 10,0 C 67 % 1002,0 hPa 0,0 l/m 2 min 0 min 381 W/m 35,6 km/h (5 Bft)
01.03.2015 15:38 11,4 C 10,0 C 67 % 1002,0 hPa 0,0 l/m 2 min 0 min 379 W/m 52,3 km/h (7 Bft)
01.03.2015 15:40 11,4 C 10,0 C 68 % 1002,1 hPa 0,0 l/m 2 min 0 min 372 W/m 43,9 km/h (6 Bft)
01.03.2015 15:42 11,4 C 9,4 C 67 % 1002,0 hPa 0,0 l/m 2 min 0 min 353 W/m 39,7 km/h (6 Bft)
01.03.2015 15:44 11,4 C 9,4 C 68 % 1002,0 hPa 0,0 l/m 2 min 0 min 346 W/m 50,2 km/h (7 Bft)
01.03.2015 15:46 11,4 C 10,0 C 68 % 1002,0 hPa 0,0 l/m 2 min 0 min 346 W/m 29,3 km/h (5 Bft)
01.03.2015 15:48 11,4 C 9,4 C 68 % 1002,0 hPa 0,0 l/m 2 min 0 min 340 W/m 37,7 km/h (5 Bft)
01.03.2015 15:50 11,4 C 9,4 C 68 % 1002,1 hPa 0,0 l/m 2 min 0 min 296 W/m 31,4 km/h (5 Bft)
01.03.2015 15:52 11,4 C 9,4 C 69 % 1002,1 hPa 0,0 l/m 0 min 0 min 153 W/m 33,5 km/h (5 Bft)
01.03.2015 15:54 11,3 C 9,4 C 69 % 1002,2 hPa 0,0 l/m 2 min 0 min 169 W/m 39,7 km/h (6 Bft)
01.03.2015 15:56 11,3 C 9,4 C 69 % 1002,2 hPa 0,0 l/m 2 min 0 min 281 W/m 35,6 km/h (5 Bft)
01.03.2015 15:58 11,2 C 9,4 C 70 % 1002,1 hPa 0,0 l/m 2 min 0 min 253 W/m 33,5 km/h (5 Bft)
01.03.2015 16:00 11,1 C 9,4 C 70 % 1002,1 hPa 0,0 l/m 0 min 0 min 128 W/m 41,8 km/h (6 Bft)
01.03.2015 16:02 11,0 C 9,4 C 70 % 1002,1 hPa 0,0 l/m 2 min 0 min 165 W/m 41,8 km/h (6 Bft)
01.03.2015 16:04 11,0 C 9,4 C 71 % 1002,2 hPa 0,0 l/m 2 min 0 min 167 W/m 29,3 km/h (5 Bft)
01.03.2015 16:06 10,9 C 9,4 C 71 % 1002,1 hPa 0,0 l/m 2 min 0 min 272 W/m 39,7 km/h (6 Bft)
01.03.2015 16:08 10,8 C 9,4 C 71 % 1002,2 hPa 0,0 l/m 0 min 0 min 133 W/m 33,5 km/h (5 Bft)
01.03.2015 16:10 10,8 C 9,4 C 72 % 1002,1 hPa 0,0 l/m 0 min 0 min 121 W/m 33,5 km/h (5 Bft)
01.03.2015 16:12 10,7 C 9,4 C 72 % 1002,1 hPa 0,0 l/m 0 min 0 min 119 W/m 37,7 km/h (5 Bft)
01.03.2015 16:14 10,7 C 9,4 C 72 % 1002,0 hPa 0,0 l/m 0 min 0 min 129 W/m 37,7 km/h (5 Bft)
01.03.2015 16:16 10,6 C 9,4 C 72 % 1002,1 hPa 0,0 l/m 0 min 0 min 127 W/m 46,0 km/h (6 Bft)
01.03.2015 16:18 10,6 C 9,4 C 72 % 1002,0 hPa 0,0 l/m 2 min 0 min 252 W/m 43,9 km/h (6 Bft)
01.03.2015 16:20 10,7 C 9,4 C 72 % 1002,1 hPa 0,0 l/m 2 min 0 min 251 W/m 39,7 km/h (6 Bft)
01.03.2015 16:22 10,7 C 9,4 C 72 % 1002,1 hPa 0,0 l/m 2 min 0 min 253 W/m 39,7 km/h (6 Bft)
01.03.2015 16:24 10,7 C 9,4 C 72 % 1002,1 hPa 0,0 l/m 2 min 0 min 217 W/m 46,0 km/h (6 Bft)
01.03.2015 16:26 10,7 C 9,4 C 72 % 1002,1 hPa 0,0 l/m 2 min 0 min 219 W/m 39,7 km/h (6 Bft)
01.03.2015 16:28 10,7 C 9,4 C 72 % 1002,1 hPa 0,0 l/m 2 min 0 min 187 W/m 35,6 km/h (5 Bft)
01.03.2015 16:30 10,7 C 9,4 C 72 % 1002,1 hPa 0,0 l/m 0 min 0 min 113 W/m 33,5 km/h (5 Bft)
01.03.2015 16:32 10,7 C 9,4 C 72 % 1002,1 hPa 0,0 l/m 0 min 0 min 81 W/m 39,7 km/h (6 Bft)
01.03.2015 16:34 10,7 C 9,4 C 71 % 1002,1 hPa 0,0 l/m 0 min 0 min 75 W/m 37,7 km/h (5 Bft)
01.03.2015 16:36 10,7 C 9,4 C 70 % 1002,2 hPa 0,0 l/m 0 min 0 min 101 W/m 50,2 km/h (7 Bft)
01.03.2015 16:38 10,7 C 9,4 C 70 % 1002,2 hPa 0,0 l/m 2 min 0 min 140 W/m 35,6 km/h (5 Bft)
01.03.2015 16:40 10,7 C 9,4 C 70 % 1002,1 hPa 0,0 l/m 2 min 0 min 238 W/m 39,7 km/h (6 Bft)
01.03.2015 16:42 10,7 C 9,4 C 70 % 1002,1 hPa 0,0 l/m 2 min 0 min 209 W/m 41,8 km/h (6 Bft)
01.03.2015 16:44 10,7 C 9,4 C 69 % 1002,1 hPa 0,0 l/m 0 min 0 min 105 W/m 39,7 km/h (6 Bft)
01.03.2015 16:46 10,7 C 8,9 C 69 % 1002,0 hPa 0,0 l/m 0 min 0 min 46 W/m 33,5 km/h (5 Bft)
01.03.2015 16:48 10,6 C 8,9 C 69 % 1002,2 hPa 0,0 l/m 0 min 0 min 40 W/m 46,0 km/h (6 Bft)
01.03.2015 16:50 10,6 C 8,9 C 69 % 1002,2 hPa 0,0 l/m 0 min 0 min 47 W/m 48,1 km/h (6 Bft)
01.03.2015 16:52 10,5 C 8,9 C 69 % 1002,2 hPa 0,0 l/m 0 min 0 min 60 W/m 37,7 km/h (5 Bft)
01.03.2015 16:54 10,4 C 8,9 C 68 % 1002,2 hPa 0,0 l/m 2 min 0 min 96 W/m 35,6 km/h (5 Bft)
01.03.2015 16:56 10,4 C 8,9 C 68 % 1002,3 hPa 0,0 l/m 0 min 0 min 80 W/m 50,2 km/h (7 Bft)
01.03.2015 16:58 10,3 C 8,9 C 68 % 1002,2 hPa 0,0 l/m 0 min 0 min 65 W/m 39,7 km/h (6 Bft)
01.03.2015 17:00 10,3 C 8,3 C 68 % 1002,1 hPa 0,0 l/m 0 min 0 min 46 W/m 46,0 km/h (6 Bft)
01.03.2015 17:02 10,2 C 8,3 C 68 % 1002,1 hPa 0,0 l/m 0 min 0 min 48 W/m 48,1 km/h (6 Bft)
01.03.2015 17:04 10,2 C 8,3 C 69 % 1002,2 hPa 0,0 l/m 0 min 0 min 67 W/m 43,9 km/h (6 Bft)
01.03.2015 17:06 10,2 C 8,3 C 69 % 1002,2 hPa 0,0 l/m 0 min 0 min 49 W/m 37,7 km/h (5 Bft)
01.03.2015 17:08 10,1 C 8,3 C 69 % 1002,1 hPa 0,0 l/m 0 min 0 min 48 W/m 43,9 km/h (6 Bft)
01.03.2015 17:10 10,1 C 8,3 C 69 % 1002,1 hPa 0,0 l/m 0 min 0 min 50 W/m 37,7 km/h (5 Bft)
01.03.2015 17:12 10,1 C 8,3 C 69 % 1002,1 hPa 0,0 l/m 0 min 0 min 44 W/m 43,9 km/h (6 Bft)
01.03.2015 17:14 10,0 C 8,3 C 69 % 1002,1 hPa 0,0 l/m 0 min 0 min 38 W/m 37,7 km/h (5 Bft)
01.03.2015 17:16 9,9 C 7,8 C 69 % 1002,2 hPa 0,0 l/m 0 min 0 min 34 W/m 35,6 km/h (5 Bft)
01.03.2015 17:18 9,9 C 7,8 C 70 % 1002,1 hPa 0,0 l/m 0 min 0 min 35 W/m 37,7 km/h (5 Bft)
01.03.2015 17:20 9,9 C 7,8 C 69 % 1002,1 hPa 0,0 l/m 0 min 0 min 35 W/m 35,6 km/h (5 Bft)
01.03.2015 17:22 9,8 C 7,8 C 70 % 1002,0 hPa 0,0 l/m 0 min 0 min 37 W/m 37,7 km/h (5 Bft)
01.03.2015 17:24 9,8 C 7,8 C 70 % 1002,1 hPa 0,0 l/m 0 min 0 min 37 W/m 27,2 km/h (4 Bft)
01.03.2015 17:26 9,8 C 7,8 C 70 % 1002,1 hPa 0,0 l/m 0 min 0 min 34 W/m 23,0 km/h (4 Bft)
01.03.2015 17:28 9,8 C 7,8 C 70 % 1002,1 hPa 0,0 l/m 0 min 0 min 32 W/m 27,2 km/h (4 Bft)
01.03.2015 17:30 9,7 C 7,8 C 71 % 1002,2 hPa 0,0 l/m 0 min 0 min 32 W/m 33,5 km/h (5 Bft)
01.03.2015 17:32 9,7 C 7,8 C 71 % 1002,2 hPa 0,0 l/m 0 min 0 min 28 W/m 39,7 km/h (6 Bft)
01.03.2015 17:34 9,7 C 7,8 C 71 % 1002,2 hPa 0,0 l/m 0 min 0 min 25 W/m 37,7 km/h (5 Bft)
01.03.2015 17:36 9,7 C 7,8 C 72 % 1002,2 hPa 0,0 l/m 0 min 0 min 26 W/m 35,6 km/h (5 Bft)
01.03.2015 17:38 9,7 C 7,8 C 72 % 1002,2 hPa 0,0 l/m 0 min 0 min 25 W/m 31,4 km/h (5 Bft)
01.03.2015 17:40 9,7 C 7,8 C 72 % 1002,2 hPa 0,0 l/m 0 min 0 min 24 W/m 31,4 km/h (5 Bft)
01.03.2015 17:42 9,6 C 7,8 C 73 % 1002,3 hPa 0,0 l/m 0 min 0 min 21 W/m 46,0 km/h (6 Bft)
01.03.2015 17:44 9,6 C 7,8 C 74 % 1002,4 hPa 0,0 l/m 0 min 0 min 19 W/m 37,7 km/h (5 Bft)
01.03.2015 17:46 9,5 C 7,8 C 74 % 1002,3 hPa 0,0 l/m 0 min 0 min 16 W/m 35,6 km/h (5 Bft)
01.03.2015 17:48 9,4 C 7,8 C 75 % 1002,4 hPa 0,0 l/m 0 min 0 min 14 W/m 39,7 km/h (6 Bft)
01.03.2015 17:50 9,4 C 7,8 C 75 % 1002,3 hPa 0,0 l/m 0 min 0 min 12 W/m 37,7 km/h (5 Bft)
01.03.2015 17:52 9,3 C 7,2 C 75 % 1002,2 hPa 0,0 l/m 0 min 0 min 12 W/m 25,1 km/h (4 Bft)
01.03.2015 17:54 9,2 C 7,2 C 75 % 1002,3 hPa 0,0 l/m 0 min 0 min 12 W/m 25,1 km/h (4 Bft)
01.03.2015 17:56 9,2 C 7,2 C 75 % 1002,2 hPa 0,0 l/m 0 min 0 min 12 W/m 18,8 km/h (3 Bft)
01.03.2015 17:58 9,2 C 7,2 C 75 % 1002,3 hPa 0,0 l/m 0 min 0 min 11 W/m 20,9 km/h (4 Bft)
01.03.2015 18:00 9,1 C 7,2 C 76 % 1002,2 hPa 0,0 l/m 0 min 0 min 8 W/m 14,6 km/h (3 Bft)
01.03.2015 18:04 9,1 C 7,2 C 76 % 1002,3 hPa 0,0 l/m 0 min 0 min 6 W/m 16,7 km/h (3 Bft)
01.03.2015 18:06 9,1 C 7,2 C 76 % 1002,4 hPa 0,0 l/m 0 min 0 min 5 W/m 8,4 km/h (2 Bft)
01.03.2015 18:08 9,1 C 7,2 C 76 % 1002,4 hPa 0,0 l/m 0 min 0 min 5 W/m 12,6 km/h (3 Bft)
01.03.2015 18:10 9,0 C 7,2 C 77 % 1002,5 hPa 0,0 l/m 0 min 0 min 2 W/m 23,0 km/h (4 Bft)
01.03.2015 18:12 9,0 C 7,2 C 77 % 1002,5 hPa 0,0 l/m 0 min 0 min 0 W/m 23,0 km/h (4 Bft)
01.03.2015 18:14 8,9 C 7,2 C 77 % 1002,4 hPa 0,0 l/m 0 min 0 min 0 W/m 16,7 km/h (3 Bft)
01.03.2015 18:16 8,9 C 6,7 C 77 % 1002,4 hPa 0,0 l/m 0 min 0 min 0 W/m 23,0 km/h (4 Bft)
01.03.2015 18:18 8,9 C 6,7 C 78 % 1002,6 hPa 0,0 l/m 0 min 0 min 0 W/m 23,0 km/h (4 Bft)
01.03.2015 18:20 8,8 C 6,7 C 78 % 1002,6 hPa 0,0 l/m 0 min 0 min 0 W/m 25,1 km/h (4 Bft)
01.03.2015 18:22 8,8 C 6,7 C 79 % 1002,5 hPa 0,0 l/m 0 min 0 min 2 W/m 18,8 km/h (3 Bft)
01.03.2015 18:24 8,7 C 6,7 C 79 % 1002,4 hPa 0,0 l/m 0 min 0 min 0 W/m 18,8 km/h (3 Bft)
01.03.2015 18:26 8,7 C 6,7 C 79 % 1002,3 hPa 0,0 l/m 0 min 0 min 0 W/m 16,7 km/h (3 Bft)
01.03.2015 18:28 8,6 C 6,1 C 80 % 1002,3 hPa 0,0 l/m 0 min 0 min 0 W/m 23,0 km/h (4 Bft)
01.03.2015 18:30 8,6 C 6,1 C 80 % 1002,3 hPa 0,0 l/m 0 min 0 min 0 W/m 20,9 km/h (4 Bft)
01.03.2015 18:32 8,5 C 6,1 C 80 % 1002,3 hPa 0,0 l/m 0 min 0 min 0 W/m 20,9 km/h (4 Bft)
01.03.2015 18:34 8,4 C 6,1 C 80 % 1002,3 hPa 0,0 l/m 0 min 0 min 0 W/m 20,9 km/h (4 Bft)
01.03.2015 18:36 8,4 C 6,1 C 81 % 1002,3 hPa 0,0 l/m 0 min 0 min 0 W/m 16,7 km/h (3 Bft)
01.03.2015 18:38 8,4 C 6,1 C 81 % 1002,2 hPa 0,0 l/m 0 min 0 min 0 W/m 18,8 km/h (3 Bft)
01.03.2015 18:40 8,3 C 6,1 C 81 % 1002,2 hPa 0,0 l/m 0 min 0 min 0 W/m 18,8 km/h (3 Bft)
01.03.2015 18:42 8,3 C 6,1 C 81 % 1002,2 hPa 0,0 l/m 0 min 0 min 0 W/m 16,7 km/h (3 Bft)
01.03.2015 18:44 8,3 C 6,7 C 81 % 1002,2 hPa 0,0 l/m 0 min 0 min 0 W/m 27,2 km/h (4 Bft)
01.03.2015 18:46 8,3 C 6,7 C 81 % 1002,2 hPa 0,0 l/m 0 min 0 min 0 W/m 23,0 km/h (4 Bft)
01.03.2015 18:48 8,2 C 6,1 C 80 % 1002,2 hPa 0,0 l/m 0 min 0 min 0 W/m 25,1 km/h (4 Bft)
01.03.2015 18:50 8,2 C 6,7 C 80 % 1002,2 hPa 0,0 l/m 0 min 0 min 0 W/m 29,3 km/h (5 Bft)
01.03.2015 18:52 8,3 C 6,7 C 80 % 1002,3 hPa 0,0 l/m 0 min 0 min 0 W/m 39,7 km/h (6 Bft)
01.03.2015 18:54 8,3 C 6,7 C 80 % 1002,2 hPa 0,0 l/m 0 min 0 min 0 W/m 31,4 km/h (5 Bft)
01.03.2015 18:56 8,3 C 6,7 C 80 % 1002,1 hPa 0,0 l/m 0 min 0 min 0 W/m 25,1 km/h (4 Bft)
01.03.2015 18:58 8,3 C 6,7 C 80 % 1002,1 hPa 0,0 l/m 0 min 0 min 0 W/m 31,4 km/h (5 Bft)
01.03.2015 19:00 8,3 C 6,7 C 80 % 1002,2 hPa 0,0 l/m 0 min 0 min 0 W/m 31,4 km/h (5 Bft)
01.03.2015 19:02 8,3 C 6,7 C 79 % 1002,2 hPa 0,0 l/m 0 min 0 min 0 W/m 27,2 km/h (4 Bft)
01.03.2015 19:04 8,3 C 6,7 C 79 % 1002,2 hPa 0,0 l/m 0 min 0 min 0 W/m 25,1 km/h (4 Bft)
01.03.2015 19:06 8,3 C 6,7 C 79 % 1002,2 hPa 0,0 l/m 0 min 0 min 0 W/m 31,4 km/h (5 Bft)
01.03.2015 19:08 8,3 C 6,7 C 79 % 1002,2 hPa 0,0 l/m 0 min 0 min 0 W/m 27,2 km/h (4 Bft)
01.03.2015 19:10 8,3 C 6,7 C 79 % 1002,2 hPa 0,0 l/m 0 min 0 min 0 W/m 27,2 km/h (4 Bft)
01.03.2015 19:12 8,3 C 6,1 C 79 % 1002,1 hPa 0,0 l/m 0 min 0 min 0 W/m 25,1 km/h (4 Bft)
01.03.2015 19:14 8,3 C 6,1 C 79 % 1002,1 hPa 0,0 l/m 0 min 0 min 0 W/m 20,9 km/h (4 Bft)
01.03.2015 19:16 8,3 C 6,1 C 79 % 1002,1 hPa 0,0 l/m 0 min 0 min 0 W/m 25,1 km/h (4 Bft)
01.03.2015 19:18 8,3 C 6,1 C 79 % 1002,1 hPa 0,0 l/m 0 min 0 min 0 W/m 23,0 km/h (4 Bft)
01.03.2015 19:20 8,2 C 6,1 C 79 % 1002,1 hPa 0,0 l/m 0 min 0 min 0 W/m 25,1 km/h (4 Bft)
01.03.2015 19:22 8,2 C 6,1 C 79 % 1002,1 hPa 0,0 l/m 0 min 0 min 0 W/m 27,2 km/h (4 Bft)
01.03.2015 19:24 8,2 C 6,1 C 79 % 1002,1 hPa 0,0 l/m 0 min 0 min 0 W/m 29,3 km/h (5 Bft)
01.03.2015 19:26 8,2 C 6,1 C 80 % 1002,0 hPa 0,0 l/m 0 min 0 min 0 W/m 33,5 km/h (5 Bft)
01.03.2015 19:28 8,2 C 6,1 C 80 % 1002,0 hPa 0,0 l/m 0 min 0 min 0 W/m 23,0 km/h (4 Bft)
01.03.2015 19:30 8,2 C 6,1 C 80 % 1002,0 hPa 0,0 l/m 0 min 0 min 0 W/m 25,1 km/h (4 Bft)
01.03.2015 19:32 8,1 C 6,1 C 80 % 1002,0 hPa 0,0 l/m 0 min 0 min 0 W/m 29,3 km/h (5 Bft)
01.03.2015 19:34 8,1 C 6,1 C 80 % 1002,0 hPa 0,0 l/m 0 min 0 min 0 W/m 29,3 km/h (5 Bft)
01.03.2015 19:36 8,1 C 6,1 C 81 % 1002,1 hPa 0,0 l/m 0 min 0 min 0 W/m 23,0 km/h (4 Bft)
01.03.2015 19:38 8,1 C 6,1 C 81 % 1002,1 hPa 0,0 l/m 0 min 0 min 0 W/m 23,0 km/h (4 Bft)
01.03.2015 19:40 8,0 C 6,1 C 81 % 1002,0 hPa 0,0 l/m 0 min 0 min 0 W/m 25,1 km/h (4 Bft)
01.03.2015 19:42 8,0 C 6,1 C 81 % 1002,0 hPa 0,0 l/m 0 min 0 min 0 W/m 25,1 km/h (4 Bft)
01.03.2015 19:44 7,9 C 6,1 C 81 % 1002,0 hPa 0,0 l/m 0 min 0 min 0 W/m 20,9 km/h (4 Bft)
01.03.2015 19:46 7,9 C 6,1 C 81 % 1002,0 hPa 0,0 l/m 0 min 0 min 0 W/m 16,7 km/h (3 Bft)
01.03.2015 19:48 7,9 C 5,6 C 81 % 1002,0 hPa 0,0 l/m 0 min 0 min 0 W/m 18,8 km/h (3 Bft)
01.03.2015 19:50 7,9 C 5,6 C 82 % 1002,0 hPa 0,0 l/m 0 min 0 min 0 W/m 16,7 km/h (3 Bft)
01.03.2015 19:52 7,8 C 5,6 C 82 % 1002,0 hPa 0,0 l/m 0 min 0 min 0 W/m 20,9 km/h (4 Bft)
01.03.2015 19:54 7,8 C 5,6 C 82 % 1001,9 hPa 0,0 l/m 0 min 0 min 0 W/m 23,0 km/h (4 Bft)
01.03.2015 19:56 7,8 C 5,6 C 82 % 1001,9 hPa 0,0 l/m 0 min 0 min 0 W/m 27,2 km/h (4 Bft)
01.03.2015 19:58 7,7 C 6,1 C 82 % 1001,9 hPa 0,0 l/m 0 min 0 min 0 W/m 25,1 km/h (4 Bft)
01.03.2015 20:00 7,7 C 6,1 C 82 % 1001,9 hPa 0,0 l/m 0 min 0 min 0 W/m 18,8 km/h (3 Bft)
01.03.2015 20:02 7,7 C 6,1 C 82 % 1001,9 hPa 0,0 l/m 0 min 0 min 0 W/m 23,0 km/h (4 Bft)
01.03.2015 20:04 7,7 C 5,6 C 82 % 1001,8 hPa 0,0 l/m 0 min 0 min 0 W/m 23,0 km/h (4 Bft)
01.03.2015 20:06 7,7 C 5,6 C 83 % 1001,8 hPa 0,0 l/m 0 min 0 min 0 W/m 20,9 km/h (4 Bft)
01.03.2015 20:08 7,7 C 5,6 C 83 % 1001,7 hPa 0,0 l/m 0 min 0 min 0 W/m 23,0 km/h (4 Bft)
01.03.2015 20:10 7,7 C 5,6 C 83 % 1001,8 hPa 0,0 l/m 0 min 0 min 0 W/m 25,1 km/h (4 Bft)
01.03.2015 20:12 7,7 C 5,6 C 83 % 1001,7 hPa 0,0 l/m 0 min 0 min 0 W/m 23,0 km/h (4 Bft)
01.03.2015 20:14 7,6 C 5,6 C 83 % 1001,7 hPa 0,0 l/m 0 min 0 min 0 W/m 25,1 km/h (4 Bft)
01.03.2015 20:16 7,6 C 5,6 C 83 % 1001,7 hPa 0,0 l/m 0 min 0 min 0 W/m 20,9 km/h (4 Bft)
01.03.2015 20:18 7,6 C 5,6 C 83 % 1001,7 hPa 0,0 l/m 0 min 0 min 0 W/m 18,8 km/h (3 Bft)
01.03.2015 20:20 7,6 C 5,6 C 83 % 1001,7 hPa 0,0 l/m 0 min 0 min 0 W/m 25,1 km/h (4 Bft)
01.03.2015 20:22 7,6 C 5,6 C 83 % 1001,6 hPa 0,0 l/m 0 min 0 min 0 W/m 20,9 km/h (4 Bft)
01.03.2015 20:24 7,6 C 5,6 C 83 % 1001,7 hPa 0,0 l/m 0 min 0 min 0 W/m 20,9 km/h (4 Bft)
01.03.2015 20:26 7,5 C 5,6 C 83 % 1001,6 hPa 0,0 l/m 0 min 0 min 0 W/m 20,9 km/h (4 Bft)
01.03.2015 20:28 7,5 C 5,6 C 83 % 1001,6 hPa 0,0 l/m 0 min 0 min 0 W/m 16,7 km/h (3 Bft)
01.03.2015 20:30 7,5 C 5,6 C 84 % 1001,6 hPa 0,0 l/m 0 min 0 min 0 W/m 16,7 km/h (3 Bft)
01.03.2015 20:32 7,5 C 5,6 C 84 % 1001,6 hPa 0,0 l/m 0 min 0 min 0 W/m 14,6 km/h (3 Bft)
01.03.2015 20:34 7,4 C 5,6 C 84 % 1001,6 hPa 0,0 l/m 0 min 0 min 0 W/m 14,6 km/h (3 Bft)
01.03.2015 20:36 7,4 C 5,0 C 84 % 1001,5 hPa 0,0 l/m 0 min 0 min 0 W/m 14,6 km/h (3 Bft)
01.03.2015 20:38 7,4 C 5,6 C 84 % 1001,6 hPa 0,0 l/m 0 min 0 min 0 W/m 18,8 km/h (3 Bft)
01.03.2015 20:40 7,4 C 5,6 C 84 % 1001,5 hPa 0,0 l/m 0 min 0 min 0 W/m 14,6 km/h (3 Bft)
01.03.2015 20:42 7,4 C 5,6 C 84 % 1001,5 hPa 0,0 l/m 0 min 0 min 0 W/m 18,8 km/h (3 Bft)
01.03.2015 20:44 7,4 C 5,6 C 84 % 1001,5 hPa 0,0 l/m 0 min 0 min 0 W/m 14,6 km/h (3 Bft)
01.03.2015 20:46 7,4 C 5,6 C 84 % 1001,5 hPa 0,0 l/m 0 min 0 min 0 W/m 14,6 km/h (3 Bft)
01.03.2015 20:48 7,4 C 5,6 C 84 % 1001,5 hPa 0,0 l/m 0 min 0 min 0 W/m 16,7 km/h (3 Bft)
01.03.2015 20:50 7,4 C 5,6 C 84 % 1001,4 hPa 0,0 l/m 0 min 0 min 0 W/m 16,7 km/h (3 Bft)
01.03.2015 20:52 7,3 C 5,6 C 84 % 1001,4 hPa 0,0 l/m 0 min 0 min 0 W/m 16,7 km/h (3 Bft)
01.03.2015 20:54 7,3 C 5,6 C 84 % 1001,3 hPa 0,0 l/m 0 min 0 min 0 W/m 14,6 km/h (3 Bft)
01.03.2015 20:56 7,3 C 5,6 C 84 % 1001,2 hPa 0,0 l/m 0 min 0 min 0 W/m 14,6 km/h (3 Bft)
01.03.2015 20:58 7,3 C 5,6 C 84 % 1001,2 hPa 0,0 l/m 0 min 0 min 0 W/m 16,7 km/h (3 Bft)
01.03.2015 21:00 7,3 C 5,6 C 84 % 1001,2 hPa 0,0 l/m 0 min 0 min 0 W/m 14,6 km/h (3 Bft)
01.03.2015 21:02 7,4 C 5,6 C 84 % 1001,1 hPa 0,0 l/m 0 min 0 min 0 W/m 12,6 km/h (3 Bft)
01.03.2015 21:04 7,3 C 5,6 C 84 % 1001,1 hPa 0,0 l/m 0 min 0 min 0 W/m 12,6 km/h (3 Bft)
01.03.2015 21:06 7,3 C 5,6 C 84 % 1001,1 hPa 0,0 l/m 0 min 0 min 0 W/m 10,5 km/h (2 Bft)
01.03.2015 21:08 7,3 C 5,6 C 84 % 1001,0 hPa 0,0 l/m 0 min 0 min 0 W/m 20,9 km/h (4 Bft)
01.03.2015 21:10 7,3 C 5,6 C 85 % 1001,0 hPa 0,0 l/m 0 min 0 min 0 W/m 18,8 km/h (3 Bft)
01.03.2015 21:12 7,4 C 6,1 C 85 % 1000,9 hPa 0,0 l/m 0 min 0 min 0 W/m 20,9 km/h (4 Bft)
01.03.2015 21:14 7,4 C 6,1 C 85 % 1000,9 hPa 0,0 l/m 0 min 0 min 0 W/m 18,8 km/h (3 Bft)
01.03.2015 21:16 7,4 C 6,1 C 85 % 1000,8 hPa 0,0 l/m 0 min 0 min 0 W/m 23,0 km/h (4 Bft)
01.03.2015 21:18 7,4 C 6,1 C 85 % 1000,8 hPa 0,0 l/m 0 min 0 min 0 W/m 12,6 km/h (3 Bft)
01.03.2015 21:20 7,4 C 6,1 C 85 % 1000,7 hPa 0,0 l/m 0 min 0 min 0 W/m 18,8 km/h (3 Bft)
01.03.2015 21:22 7,4 C 6,1 C 85 % 1000,7 hPa 0,0 l/m 0 min 0 min 0 W/m 18,8 km/h (3 Bft)
01.03.2015 21:24 7,4 C 6,1 C 85 % 1000,6 hPa 0,0 l/m 0 min 0 min 0 W/m 16,7 km/h (3 Bft)
01.03.2015 21:26 7,4 C 6,1 C 85 % 1000,6 hPa 0,0 l/m 0 min 0 min 0 W/m 23,0 km/h (4 Bft)
01.03.2015 21:28 7,4 C 6,1 C 85 % 1000,6 hPa 0,0 l/m 0 min 0 min 0 W/m 18,8 km/h (3 Bft)
01.03.2015 21:30 7,5 C 6,1 C 85 % 1000,6 hPa 0,0 l/m 0 min 2 min 0 W/m 14,6 km/h (3 Bft)
01.03.2015 21:32 7,5 C 6,1 C 85 % 1000,5 hPa 0,0 l/m 0 min 2 min 0 W/m 25,1 km/h (4 Bft)
01.03.2015 21:34 7,6 C 5,6 C 85 % 1000,4 hPa 0,0 l/m 0 min 2 min 0 W/m 12,6 km/h (3 Bft)
01.03.2015 21:36 7,6 C 5,6 C 85 % 1000,4 hPa 0,0 l/m 0 min 2 min 0 W/m 16,7 km/h (3 Bft)
01.03.2015 21:38 7,6 C 5,6 C 85 % 1000,3 hPa 0,0 l/m 0 min 0 min 0 W/m 10,5 km/h (2 Bft)
01.03.2015 21:40 7,6 C 5,6 C 85 % 1000,3 hPa 0,0 l/m 0 min 0 min 0 W/m 10,5 km/h (2 Bft)
01.03.2015 21:42 7,6 C 5,6 C 85 % 1000,2 hPa 0,0 l/m 0 min 0 min 0 W/m 16,7 km/h (3 Bft)
01.03.2015 21:44 7,6 C 5,6 C 85 % 1000,2 hPa 0,0 l/m 0 min 0 min 0 W/m 14,6 km/h (3 Bft)
01.03.2015 21:46 7,6 C 5,6 C 85 % 1000,3 hPa 0,0 l/m 0 min 0 min 0 W/m 10,5 km/h (2 Bft)
01.03.2015 21:48 7,7 C 5,6 C 86 % 1000,2 hPa 0,0 l/m 0 min 0 min 0 W/m 8,4 km/h (2 Bft)
01.03.2015 21:50 7,6 C 5,6 C 86 % 1000,2 hPa 0,0 l/m 0 min 0 min 0 W/m 12,6 km/h (3 Bft)
01.03.2015 21:52 7,7 C 5,6 C 86 % 1000,2 hPa 0,0 l/m 0 min 0 min 0 W/m 10,5 km/h (2 Bft)
01.03.2015 21:54 7,6 C 5,6 C 86 % 1000,1 hPa 0,0 l/m 0 min 0 min 0 W/m 10,5 km/h (2 Bft)
01.03.2015 21:56 7,6 C 5,6 C 86 % 1000,1 hPa 0,0 l/m 0 min 0 min 0 W/m 10,5 km/h (2 Bft)
01.03.2015 21:58 7,6 C 5,6 C 86 % 1000,1 hPa 0,0 l/m 0 min 0 min 0 W/m 12,6 km/h (3 Bft)
01.03.2015 22:00 7,6 C 6,1 C 86 % 1000,1 hPa 0,0 l/m 0 min 0 min 0 W/m 14,6 km/h (3 Bft)
01.03.2015 22:02 7,6 C 6,1 C 86 % 1000,1 hPa 0,0 l/m 0 min 0 min 0 W/m 16,7 km/h (3 Bft)
01.03.2015 22:04 7,6 C 6,1 C 86 % 1000,1 hPa 0,0 l/m 0 min 0 min 0 W/m 20,9 km/h (4 Bft)
01.03.2015 22:06 7,6 C 6,1 C 86 % 999,9 hPa 0,0 l/m 0 min 0 min 0 W/m 16,7 km/h (3 Bft)
01.03.2015 22:08 7,7 C 6,1 C 86 % 999,9 hPa 0,0 l/m 0 min 0 min 0 W/m 14,6 km/h (3 Bft)
01.03.2015 22:10 7,7 C 6,1 C 86 % 999,8 hPa 0,0 l/m 0 min 0 min 0 W/m 14,6 km/h (3 Bft)
01.03.2015 22:12 7,7 C 6,1 C 86 % 999,7 hPa 0,0 l/m 0 min 0 min 0 W/m 18,8 km/h (3 Bft)
01.03.2015 22:14 7,7 C 6,1 C 86 % 999,6 hPa 0,0 l/m 0 min 0 min 0 W/m 10,5 km/h (2 Bft)
01.03.2015 22:16 7,7 C 6,1 C 86 % 999,7 hPa 0,0 l/m 0 min 0 min 0 W/m 12,6 km/h (3 Bft)
01.03.2015 22:18 7,7 C 6,1 C 86 % 999,7 hPa 0,0 l/m 0 min 0 min 0 W/m 12,6 km/h (3 Bft)
01.03.2015 22:20 7,7 C 6,1 C 86 % 999,7 hPa 0,0 l/m 0 min 0 min 0 W/m 8,4 km/h (2 Bft)
01.03.2015 22:22 7,7 C 6,1 C 86 % 999,5 hPa 0,0 l/m 0 min 0 min 0 W/m 12,6 km/h (3 Bft)
01.03.2015 22:24 7,7 C 6,1 C 86 % 999,3 hPa 0,0 l/m 0 min 0 min 0 W/m 10,5 km/h (2 Bft)
01.03.2015 22:26 7,7 C 6,1 C 86 % 999,2 hPa 0,0 l/m 0 min 0 min 0 W/m 6,3 km/h (2 Bft)
01.03.2015 22:28 7,7 C 5,6 C 86 % 999,2 hPa 0,0 l/m 0 min 0 min 0 W/m 8,4 km/h (2 Bft)
01.03.2015 22:30 7,7 C 5,6 C 86 % 999,1 hPa 0,0 l/m 0 min 0 min 0 W/m 6,3 km/h (2 Bft)
01.03.2015 22:32 7,7 C 5,6 C 86 % 999,1 hPa 0,0 l/m 0 min 0 min 0 W/m 10,5 km/h (2 Bft)
01.03.2015 22:34 7,7 C 5,6 C 86 % 999,1 hPa 0,0 l/m 0 min 0 min 0 W/m 8,4 km/h (2 Bft)
01.03.2015 22:36 7,7 C 5,6 C 86 % 999,1 hPa 0,0 l/m 0 min 0 min 0 W/m 12,6 km/h (3 Bft)
01.03.2015 22:38 7,6 C 5,6 C 86 % 999,1 hPa 0,0 l/m 0 min 0 min 0 W/m 12,6 km/h (3 Bft)
01.03.2015 22:40 7,6 C 6,1 C 86 % 999,0 hPa 0,0 l/m 0 min 0 min 0 W/m 14,6 km/h (3 Bft)
01.03.2015 22:42 7,6 C 6,1 C 86 % 999,1 hPa 0,0 l/m 0 min 0 min 0 W/m 12,6 km/h (3 Bft)
01.03.2015 22:44 7,6 C 6,1 C 86 % 999,1 hPa 0,0 l/m 0 min 0 min 0 W/m 14,6 km/h (3 Bft)
01.03.2015 22:46 7,6 C 6,1 C 86 % 999,0 hPa 0,0 l/m 0 min 2 min 0 W/m 27,2 km/h (4 Bft)
01.03.2015 22:48 7,6 C 5,6 C 86 % 998,9 hPa 0,0 l/m 0 min 2 min 0 W/m 50,2 km/h (7 Bft)
01.03.2015 22:50 7,6 C 5,6 C 86 % 998,8 hPa 0,0 l/m 0 min 0 min 0 W/m 23,0 km/h (4 Bft)
01.03.2015 22:52 7,6 C 5,6 C 86 % 998,8 hPa 0,0 l/m 0 min 0 min 0 W/m 33,5 km/h (5 Bft)
01.03.2015 22:54 7,6 C 5,6 C 86 % 998,7 hPa 0,0 l/m 0 min 0 min 0 W/m 29,3 km/h (5 Bft)
01.03.2015 22:56 7,7 C 5,6 C 86 % 998,7 hPa 0,0 l/m 0 min 0 min 0 W/m 20,9 km/h (4 Bft)
01.03.2015 22:58 7,7 C 5,6 C 86 % 998,6 hPa 0,0 l/m 0 min 0 min 0 W/m 27,2 km/h (4 Bft)
01.03.2015 23:00 7,7 C 5,6 C 86 % 998,5 hPa 0,0 l/m 0 min 0 min 0 W/m 25,1 km/h (4 Bft)
01.03.2015 23:02 7,7 C 5,6 C 86 % 998,5 hPa 0,0 l/m 0 min 0 min 0 W/m 18,8 km/h (3 Bft)
01.03.2015 23:04 7,7 C 5,6 C 85 % 998,3 hPa 0,0 l/m 0 min 0 min 0 W/m 12,6 km/h (3 Bft)
01.03.2015 23:06 7,7 C 5,0 C 85 % 998,3 hPa 0,0 l/m 0 min 0 min 0 W/m 10,5 km/h (2 Bft)
01.03.2015 23:08 7,7 C 5,0 C 85 % 998,3 hPa 0,0 l/m 0 min 0 min 0 W/m 10,5 km/h (2 Bft)
01.03.2015 23:10 7,7 C 5,0 C 85 % 998,3 hPa 0,0 l/m 0 min 0 min 0 W/m 10,5 km/h (2 Bft)
01.03.2015 23:12 7,7 C 5,0 C 85 % 998,4 hPa 0,0 l/m 0 min 0 min 0 W/m 12,6 km/h (3 Bft)
01.03.2015 23:14 7,7 C 5,0 C 85 % 998,3 hPa 0,0 l/m 0 min 0 min 0 W/m 8,4 km/h (2 Bft)
01.03.2015 23:16 7,7 C 5,0 C 85 % 998,3 hPa 0,0 l/m 0 min 0 min 0 W/m 10,5 km/h (2 Bft)
01.03.2015 23:18 7,6 C 5,0 C 85 % 998,1 hPa 0,0 l/m 0 min 0 min 0 W/m 14,6 km/h (3 Bft)
01.03.2015 23:20 7,6 C 5,0 C 85 % 998,1 hPa 0,0 l/m 0 min 0 min 0 W/m 14,6 km/h (3 Bft)
01.03.2015 23:22 7,6 C 5,0 C 85 % 998,0 hPa 0,0 l/m 0 min 0 min 0 W/m 23,0 km/h (4 Bft)
01.03.2015 23:24 7,6 C 5,0 C 85 % 998,0 hPa 0,0 l/m 0 min 0 min 0 W/m 14,6 km/h (3 Bft)
01.03.2015 23:26 7,6 C 5,6 C 85 % 997,8 hPa 0,0 l/m 0 min 0 min 0 W/m 16,7 km/h (3 Bft)
01.03.2015 23:28 7,6 C 5,6 C 85 % 997,8 hPa 0,0 l/m 0 min 0 min 0 W/m 16,7 km/h (3 Bft)
01.03.2015 23:30 7,5 C 5,6 C 85 % 997,8 hPa 0,0 l/m 0 min 0 min 0 W/m 16,7 km/h (3 Bft)
01.03.2015 23:32 7,5 C 5,6 C 85 % 997,8 hPa 0,0 l/m 0 min 0 min 0 W/m 20,9 km/h (4 Bft)
01.03.2015 23:34 7,4 C 5,6 C 85 % 997,8 hPa 0,0 l/m 0 min 0 min 0 W/m 23,0 km/h (4 Bft)
01.03.2015 23:36 7,5 C 6,1 C 85 % 997,7 hPa 0,0 l/m 0 min 0 min 0 W/m 20,9 km/h (4 Bft)
01.03.2015 23:38 7,5 C 6,1 C 85 % 997,8 hPa 0,0 l/m 0 min 0 min 0 W/m 16,7 km/h (3 Bft)
01.03.2015 23:40 7,5 C 6,1 C 85 % 997,8 hPa 0,0 l/m 0 min 0 min 0 W/m 23,0 km/h (4 Bft)
01.03.2015 23:42 7,5 C 6,1 C 85 % 997,8 hPa 0,0 l/m 0 min 0 min 0 W/m 25,1 km/h (4 Bft)
01.03.2015 23:44 7,6 C 6,1 C 85 % 997,6 hPa 0,0 l/m 0 min 0 min 0 W/m 25,1 km/h (4 Bft)
01.03.2015 23:46 7,6 C 6,7 C 85 % 997,7 hPa 0,0 l/m 0 min 0 min 0 W/m 29,3 km/h (5 Bft)
01.03.2015 23:48 7,7 C 6,7 C 84 % 997,5 hPa 0,0 l/m 0 min 0 min 0 W/m 35,6 km/h (5 Bft)
01.03.2015 23:50 7,8 C 6,7 C 84 % 997,4 hPa 0,0 l/m 0 min 0 min 0 W/m 25,1 km/h (4 Bft)
01.03.2015 23:52 7,8 C 6,7 C 84 % 997,2 hPa 0,0 l/m 0 min 0 min 0 W/m 35,6 km/h (5 Bft)
01.03.2015 23:54 7,9 C 6,7 C 83 % 997,2 hPa 0,0 l/m 0 min 0 min 0 W/m 29,3 km/h (5 Bft)
01.03.2015 23:56 7,9 C 6,7 C 83 % 997,2 hPa 0,0 l/m 0 min 0 min 0 W/m 27,2 km/h (4 Bft)
01.03.2015 23:58 8,1 C 6,7 C 83 % 997,0 hPa 0,0 l/m 0 min 0 min 0 W/m 37,7 km/h (5 Bft)
_ Min-Zeit 05:24 02:52 13:02 23:58 - - - - 22:26
Minimum _ 5,3 C 3,3 C 64 % 997,0 hPa - - - - 6,3 km/h (2 Bft)
_ Max-Zeit 12:58 12:40 07:38 00:02 02:48 08:46 00:58 12:40 12:06
Maximum _ 12,1 C 10,6 C 96 % 1007,1 hPa 0,2 l/m 2 min 2 min 709 W/m 64,9 km/h
W-SW (8 Bft)
Durchschnitt _ 8,3 C 6,5 C 80 % 1002,0 hPa #1,4 l/m #5:00 h #6:22 h 227 W/m 29,4 km/h (5 Bft)
© 2015 W. Hausmann